| time (UTC) | temp C | wind direction | speed KPH | gust KPH | rain 1hr cm | rain 24hr cm | rain mn cm | humidity % | barometer mb |
| 20260504195120 | 23 | 210 | 8.0 | 11.3 | 0.00 | 0.00 | 0.00 | 35 | 1010.2 |
| 20260504195016 | 23 | 216 | 8.0 | 14.5 | 0.00 | 0.00 | 0.00 | 34 | 1010.1 |
| 20260504194927 | 23 | 204 | 8.0 | 14.5 | 0.00 | 0.00 | 0.00 | 35 | 1010.3 |
| 20260504194823 | 23 | 251 | 4.8 | 6.4 | 0.00 | 0.00 | 0.00 | 34 | 1010.1 |
| 20260504194718 | 23 | 206 | 8.0 | 9.7 | 0.00 | 0.00 | 0.00 | 35 | 1010.1 |
| 20260504194630 | 23 | 198 | 8.0 | 12.9 | 0.00 | 0.00 | 0.00 | 33 | 1010.2 |
| 20260504194526 | 22 | 204 | 3.2 | 6.4 | 0.00 | 0.00 | 0.00 | 34 | 1010.2 |
| 20260504194421 | 22 | 220 | 6.4 | 9.7 | 0.00 | 0.00 | 0.00 | 35 | 1010.1 |
| 20260504194317 | 22 | 206 | 6.4 | 11.3 | 0.00 | 0.00 | 0.00 | 34 | 1010.1 |
| 20260504194228 | 22 | 276 | 4.8 | 11.3 | 0.00 | 0.00 | 0.00 | 34 | 1010.1 |
| 20260504194124 | 22 | 202 | 8.0 | 14.5 | 0.00 | 0.00 | 0.00 | 36 | 1010.0 |
| 20260504194019 | 23 | 197 | 9.7 | 16.1 | 0.00 | 0.00 | 0.00 | 34 | 1010.1 |
| 20260504193915 | 23 | 216 | 6.4 | 11.3 | 0.00 | 0.00 | 0.00 | 34 | 1010.2 |
| 20260504193827 | 23 | 210 | 8.0 | 12.9 | 0.00 | 0.00 | 0.00 | 34 | 1010.1 |
| 20260504193722 | 23 | 210 | 8.0 | 14.5 | 0.00 | 0.00 | 0.00 | 34 | 1010.1 |
| 20260504193618 | 23 | 212 | 8.0 | 11.3 | 0.00 | 0.00 | 0.00 | 35 | 1010.2 |
| 20260504193530 | 23 | 208 | 8.0 | 14.5 | 0.00 | 0.00 | 0.00 | 36 | 1010.1 |
| 20260504193445 | 23 | 276 | 3.2 | 6.4 | 0.00 | 0.00 | 0.00 | 34 | 1010.2 |
| 20260504193321 | 23 | 197 | 4.8 | 6.4 | 0.00 | 0.00 | 0.00 | 33 | 1010.2 |
| 20260504193216 | 23 | 202 | 4.8 | 8.0 | 0.00 | 0.00 | 0.00 | 33 | 1010.2 |
| 20260504193128 | 22 | 192 | 3.2 | 4.8 | 0.00 | 0.00 | 0.00 | 34 | 1010.2 |
| 20260504193024 | 22 | 256 | 4.8 | 6.4 | 0.00 | 0.00 | 0.00 | 36 | 1010.3 |
| 20260504192919 | 22 | 250 | 3.2 | 6.4 | 0.00 | 0.00 | 0.00 | 34 | 1010.3 |
| 20260504192831 | 22 | 291 | 4.8 | 9.7 | 0.00 | 0.00 | 0.00 | 34 | 1010.2 |
| 20260504192746 | 22 | 212 | 4.8 | 9.7 | 0.00 | 0.00 | 0.00 | 35 | 1010.2 |
| 20260504192622 | 22 | 199 | 8.0 | 12.9 | 0.00 | 0.00 | 0.00 | 33 | 1010.2 |
| 20260504192517 | 23 | 189 | 11.3 | 14.5 | 0.00 | 0.00 | 0.00 | 32 | 1010.2 |
| 20260504192429 | 23 | 220 | 8.0 | 12.9 | 0.00 | 0.00 | 0.00 | 34 | 1010.5 |
| 20260504192325 | 23 | 197 | 4.8 | 8.0 | 0.00 | 0.00 | 0.00 | 35 | 1010.2 |
| 20260504192240 | 23 | 247 | 4.8 | 9.7 | 0.00 | 0.00 | 0.00 | 35 | 1010.5 |
| 20260504192116 | 22 | 222 | 6.4 | 12.9 | 0.00 | 0.00 | 0.00 | 35 | 1010.4 |
| 20260504192048 | 22 | 210 | 4.8 | 6.4 | 0.00 | 0.00 | 0.00 | 36 | 1010.5 |
| 20260504191943 | 22 | 236 | 4.8 | 9.7 | 0.00 | 0.00 | 0.00 | 34 | 1010.3 |
| 20260504191819 | 22 | 254 | 6.4 | 8.0 | 0.00 | 0.00 | 0.00 | 35 | 1010.2 |
| 20260504191731 | 22 | 195 | 8.0 | 9.7 | 0.00 | 0.00 | 0.00 | 34 | 1010.4 |
| 20260504191646 | 22 | 248 | 4.8 | 11.3 | 0.00 | 0.00 | 0.00 | 34 | 1010.3 |
| 20260504191522 | 22 | 200 | 9.7 | 14.5 | 0.00 | 0.00 | 0.00 | 34 | 1010.2 |
| 20260504191417 | 22 | 211 | 11.3 | 19.3 | 0.00 | 0.00 | 0.00 | 35 | 1010.4 |
| 20260504191349 | 23 | 197 | 8.0 | 14.5 | 0.00 | 0.00 | 0.00 | 34 | 1010.6 |
| 20260504191225 | 23 | 216 | 8.0 | 20.9 | 0.00 | 0.00 | 0.00 | 33 | 1010.6 |
| 20260504191120 | 23 | 232 | 4.8 | 6.4 | 0.00 | 0.00 | 0.00 | 36 | 1010.7 |
| 20260504191016 | 23 | 193 | 3.2 | 6.4 | 0.00 | 0.00 | 0.00 | 34 | 1010.6 |
| 20260504190928 | 23 | 286 | 3.2 | 11.3 | 0.00 | 0.00 | 0.00 | 34 | 1010.4 |
| 20260504190823 | 23 | 312 | 4.8 | 12.9 | 0.00 | 0.00 | 0.00 | 33 | 1010.4 |
| 20260504190719 | 22 | 219 | 4.8 | 11.3 | 0.00 | 0.00 | 0.00 | 33 | 1010.5 |
| 20260504190630 | 22 | 273 | 4.8 | 14.5 | 0.00 | 0.00 | 0.00 | 33 | 1010.6 |
| 20260504190526 | 22 | 232 | 4.8 | 6.4 | 0.00 | 0.00 | 0.00 | 34 | 1010.4 |
| 20260504190421 | 22 | 229 | 4.8 | 12.9 | 0.00 | 0.00 | 0.00 | 34 | 1010.6 |
| 20260504190357 | 22 | 195 | 9.7 | 14.5 | 0.00 | 0.00 | 0.00 | 34 | 1010.7 |
| 20260504190229 | 22 | 204 | 9.7 | 12.9 | 0.00 | 0.00 | 0.00 | 34 | 1010.7 |
| 20260504190144 | 22 | 197 | 11.3 | 20.9 | 0.00 | 0.00 | 0.00 | 34 | 1010.6 |
| 20260504190020 | 22 | 197 | 8.0 | 14.5 | 0.00 | 0.00 | 0.00 | 35 | 1010.5 |
| 20260504185915 | 22 | 189 | 8.0 | 9.7 | 0.00 | 0.00 | 0.00 | 36 | 1010.6 |
| 20260504185827 | 22 | 167 | 3.2 | 6.4 | 0.00 | 0.00 | 0.00 | 35 | 1010.5 |
| 20260504185723 | 22 | 222 | 6.4 | 9.7 | 0.00 | 0.00 | 0.00 | 35 | 1010.6 |
| 20260504185618 | 22 | 199 | 4.8 | 8.0 | 0.00 | 0.00 | 0.00 | 37 | 1010.7 |
| 20260504185530 | 22 | 207 | 6.4 | 8.0 | 0.00 | 0.00 | 0.00 | 37 | 1010.6 |
| 20260504185425 | 22 | 211 | 8.0 | 11.3 | 0.00 | 0.00 | 0.00 | 35 | 1010.9 |
| 20260504185321 | 22 | 211 | 4.8 | 8.0 | 0.00 | 0.00 | 0.00 | 37 | 1010.7 |
| 20260504185236 | 22 | 206 | 6.4 | 11.3 | 0.00 | 0.00 | 0.00 | 35 | 1010.8 |
| 20260504185128 | 22 | 203 | 8.0 | 11.3 | 0.00 | 0.00 | 0.00 | 35 | 1011.0 |
| 20260504185024 | 22 | 201 | 12.9 | 20.9 | 0.00 | 0.00 | 0.00 | 35 | 1011.0 |
| 20260504184919 | 22 | 226 | 9.7 | 14.5 | 0.00 | 0.00 | 0.00 | 35 | 1010.8 |
| 20260504184831 | 22 | 200 | 8.0 | 12.9 | 0.00 | 0.00 | 0.00 | 36 | 1010.9 |
| 20260504184726 | 22 | 210 | 4.8 | 11.3 | 0.00 | 0.00 | 0.00 | 34 | 1010.9 |
| 20260504184622 | 22 | 215 | 6.4 | 9.7 | 0.00 | 0.00 | 0.00 | 37 | 1010.9 |
| 20260504184517 | 22 | 213 | 8.0 | 11.3 | 0.00 | 0.00 | 0.00 | 35 | 1010.9 |
| 20260504184429 | 22 | 197 | 9.7 | 11.3 | 0.00 | 0.00 | 0.00 | 35 | 1011.0 |
| 20260504184325 | 22 | 194 | 12.9 | 20.9 | 0.00 | 0.00 | 0.00 | 34 | 1011.1 |
| 20260504184221 | 22 | 206 | 8.0 | 16.1 | 0.00 | 0.00 | 0.00 | 35 | 1011.0 |
| 20260504184116 | 22 | 207 | 6.4 | 11.3 | 0.00 | 0.00 | 0.00 | 36 | 1010.9 |
| 20260504184028 | 22 | 201 | 6.4 | 11.3 | 0.00 | 0.00 | 0.00 | 36 | 1010.9 |
| 20260504184003 | 22 | 218 | 6.4 | 12.9 | 0.00 | 0.00 | 0.00 | 35 | 1010.9 |
| 20260504183819 | 22 | 206 | 9.7 | 19.3 | 0.00 | 0.00 | 0.00 | 34 | 1011.2 |
| 20260504183730 | 22 | 211 | 9.7 | 17.7 | 0.00 | 0.00 | 0.00 | 34 | 1011.1 |
| 20260504183626 | 22 | 232 | 8.0 | 9.7 | 0.00 | 0.00 | 0.00 | 35 | 1011.0 |
| 20260504183522 | 22 | 204 | 6.4 | 8.0 | 0.00 | 0.00 | 0.00 | 34 | 1011.1 |
| 20260504183437 | 22 | 217 | 4.8 | 8.0 | 0.00 | 0.00 | 0.00 | 36 | 1011.1 |
| 20260504183329 | 22 | 210 | 6.4 | 9.7 | 0.00 | 0.00 | 0.00 | 35 | 1010.9 |
| 20260504183224 | 22 | 206 | 8.0 | 11.3 | 0.00 | 0.00 | 0.00 | 35 | 1011.2 |
| 20260504183120 | 22 | 212 | 8.0 | 11.3 | 0.00 | 0.00 | 0.00 | 34 | 1011.2 |
| 20260504183036 | 22 | 253 | 4.8 | 9.7 | 0.00 | 0.00 | 0.00 | 33 | 1011.2 |
| 20260504182928 | 22 | 228 | 8.0 | 19.3 | 0.00 | 0.00 | 0.00 | 33 | 1011.1 |
| 20260504182823 | 22 | 194 | 6.4 | 9.7 | 0.00 | 0.00 | 0.00 | 35 | 1011.0 |
| 20260504182719 | 22 | 172 | 4.8 | 6.4 | 0.00 | 0.00 | 0.00 | 35 | 1011.2 |
| 20260504182630 | 22 | 257 | 6.4 | 16.1 | 0.00 | 0.00 | 0.00 | 34 | 1011.1 |
| 20260504182526 | 22 | 216 | 6.4 | 11.3 | 0.00 | 0.00 | 0.00 | 36 | 1011.2 |
| 20260504182422 | 22 | 226 | 4.8 | 8.0 | 0.00 | 0.00 | 0.00 | 36 | 1011.2 |
| 20260504182317 | 22 | 208 | 4.8 | 14.5 | 0.00 | 0.00 | 0.00 | 35 | 1011.1 |
| 20260504182229 | 22 | 197 | 8.0 | 19.3 | 0.00 | 0.00 | 0.00 | 35 | 1011.2 |
| 20260504182124 | 22 | 241 | 4.8 | 8.0 | 0.00 | 0.00 | 0.00 | 37 | 1011.1 |
| 20260504182020 | 22 | 208 | 8.0 | 12.9 | 0.00 | 0.00 | 0.00 | 37 | 1011.1 |
| 20260504181936 | 22 | 202 | 11.3 | 19.3 | 0.00 | 0.00 | 0.00 | 35 | 1011.2 |
| 20260504181907 | 22 | 193 | 9.7 | 14.5 | 0.00 | 0.00 | 0.00 | 35 | 1011.0 |
| 20260504181723 | 22 | 191 | 9.7 | 14.5 | 0.00 | 0.00 | 0.00 | 35 | 1011.4 |
| 20260504181618 | 22 | 190 | 3.2 | 4.8 | 0.00 | 0.00 | 0.00 | 37 | 1011.3 |
| 20260504181530 | 22 | 196 | 6.4 | 16.1 | 0.00 | 0.00 | 0.00 | 36 | 1011.5 |
| 20260504181425 | 22 | 199 | 9.7 | 16.1 | 0.00 | 0.00 | 0.00 | 35 | 1011.3 |
| 20260504181321 | 21 | 277 | 4.8 | 9.7 | 0.00 | 0.00 | 0.00 | 35 | 1011.4 |
| 20260504181216 | 22 | 204 | 14.5 | 27.4 | 0.00 | 0.00 | 0.00 | 35 | 1011.3 |
| 20260504181148 | 21 | 280 | 9.7 | 19.3 | 0.00 | 0.00 | 0.00 | 35 | 1011.3 |
| 20260504181024 | 21 | 188 | 6.4 | 20.9 | 0.00 | 0.00 | 0.00 | 35 | 1011.3 |
| 20260504180919 | 21 | 194 | 11.3 | 22.5 | 0.00 | 0.00 | 0.00 | 34 | 1011.2 |
| 20260504180831 | 21 | 207 | 4.8 | 8.0 | 0.00 | 0.00 | 0.00 | 35 | 1011.4 |
| 20260504180727 | 22 | 198 | 9.7 | 14.5 | 0.00 | 0.00 | 0.00 | 34 | 1011.4 |
| 20260504180642 | 22 | 188 | 8.0 | 12.9 | 0.00 | 0.00 | 0.00 | 35 | 1011.5 |
| 20260504180518 | 21 | 213 | 4.8 | 9.7 | 0.00 | 0.00 | 0.00 | 36 | 1011.4 |
| 20260504180429 | 21 | 270 | 1.6 | 6.4 | 0.00 | 0.00 | 0.00 | 34 | 1011.4 |
| 20260504180325 | 21 | 269 | 3.2 | 9.7 | 0.00 | 0.00 | 0.00 | 35 | 1011.3 |
| 20260504180221 | 21 | 190 | 8.0 | 16.1 | 0.00 | 0.00 | 0.00 | 35 | 1011.5 |
| 20260504180116 | 21 | 199 | 9.7 | 12.9 | 0.00 | 0.00 | 0.00 | 35 | 1011.4 |
| 20260504180028 | 21 | 194 | 4.8 | 9.7 | 0.00 | 0.00 | 0.00 | 36 | 1011.7 |
| 20260504175923 | 21 | 196 | 8.0 | 12.9 | 0.00 | 0.00 | 0.00 | 37 | 1011.4 |
| 20260504175819 | 21 | 198 | 12.9 | 19.3 | 0.00 | 0.00 | 0.00 | 34 | 1011.4 |
| 20260504175730 | 21 | 196 | 9.7 | 16.1 | 0.00 | 0.00 | 0.00 | 36 | 1011.6 |
| 20260504175625 | 22 | 203 | 9.7 | 20.9 | 0.00 | 0.00 | 0.00 | 35 | 1011.4 |
| 20260504175521 | 22 | 201 | 8.0 | 14.5 | 0.00 | 0.00 | 0.00 | 34 | 1011.4 |
| 20260504175417 | 22 | 208 | 6.4 | 8.0 | 0.00 | 0.00 | 0.00 | 37 | 1011.6 |
| 20260504175328 | 21 | 202 | 3.2 | 9.7 | 0.00 | 0.00 | 0.00 | 36 | 1011.6 |
| 20260504175224 | 21 | 307 | 6.4 | 11.3 | 0.00 | 0.00 | 0.00 | 35 | 1011.6 |
| 20260504175119 | 21 | 324 | 4.8 | 12.9 | 0.00 | 0.00 | 0.00 | 36 | 1011.7 |
| 20260504175031 | 21 | 208 | 9.7 | 14.5 | 0.00 | 0.00 | 0.00 | 36 | 1011.8 |
| 20260504174926 | 21 | 189 | 9.7 | 16.1 | 0.00 | 0.00 | 0.00 | 35 | 1011.8 |
| 20260504174822 | 21 | 206 | 8.0 | 19.3 | 0.00 | 0.00 | 0.00 | 36 | 1011.8 |
| 20260504174720 | 21 | 214 | 9.7 | 14.5 | 0.00 | 0.00 | 0.00 | 34 | 1011.7 |
| 20260504174649 | 21 | 203 | 9.7 | 12.9 | 0.00 | 0.00 | 0.00 | 35 | 1011.7 |
| 20260504174525 | 22 | 214 | 8.0 | 12.9 | 0.00 | 0.00 | 0.00 | 34 | 1011.7 |
| 20260504174420 | 22 | 280 | 1.6 | 8.0 | 0.00 | 0.00 | 0.00 | 34 | 1011.8 |
| 20260504174316 | 22 | 194 | 4.8 | 9.7 | 0.00 | 0.00 | 0.00 | 37 | 1011.7 |
| 20260504174247 | 22 | 205 | 8.0 | 16.1 | 0.00 | 0.00 | 0.00 | 36 | 1011.8 |
| 20260504174123 | 22 | 250 | 6.4 | 14.5 | 0.00 | 0.00 | 0.00 | 35 | 1011.7 |
| 20260504174019 | 22 | 238 | 4.8 | 8.0 | 0.00 | 0.00 | 0.00 | 37 | 1011.9 |
| 20260504173930 | 22 | 285 | 8.0 | 9.7 | 0.00 | 0.00 | 0.00 | 38 | 1011.8 |
| 20260504173825 | 22 | 205 | 6.4 | 8.0 | 0.00 | 0.00 | 0.00 | 37 | 1011.8 |
| 20260504173721 | 21 | 194 | 6.4 | 6.4 | 0.00 | 0.00 | 0.00 | 38 | 1011.7 |
| 20260504173617 | 21 | 224 | 4.8 | 6.4 | 0.00 | 0.00 | 0.00 | 36 | 1011.7 |
| 20260504173528 | 21 | 220 | 6.4 | 12.9 | 0.00 | 0.00 | 0.00 | 36 | 1011.8 |
| 20260504173424 | 21 | 197 | 6.4 | 14.5 | 0.00 | 0.00 | 0.00 | 36 | 1011.8 |
| 20260504173320 | 21 | 201 | 4.8 | 8.0 | 0.00 | 0.00 | 0.00 | 37 | 1011.6 |
| 20260504173215 | 21 | 220 | 3.2 | 6.4 | 0.00 | 0.00 | 0.00 | 38 | 1011.8 |
| 20260504173147 | 21 | 221 | 3.2 | 9.7 | 0.00 | 0.00 | 0.00 | 37 | 1011.6 |
| 20260504173043 | 21 | 208 | 8.0 | 19.3 | 0.00 | 0.00 | 0.00 | 37 | 1011.8 |
| 20260504172918 | 21 | 205 | 9.7 | 17.7 | 0.00 | 0.00 | 0.00 | 38 | 1011.8 |
| 20260504172830 | 21 | 198 | 9.7 | 14.5 | 0.00 | 0.00 | 0.00 | 36 | 1011.7 |
| 20260504172725 | 21 | 218 | 8.0 | 12.9 | 0.00 | 0.00 | 0.00 | 36 | 1011.8 |
| 20260504172621 | 21 | 193 | 8.0 | 9.7 | 0.00 | 0.00 | 0.00 | 36 | 1011.9 |
| 20260504172537 | 21 | 229 | 9.7 | 22.5 | 0.00 | 0.00 | 0.00 | 35 | 1012.0 |
| 20260504172428 | 21 | 223 | 6.4 | 16.1 | 0.00 | 0.00 | 0.00 | 36 | 1012.0 |
| 20260504172324 | 21 | 215 | 9.7 | 17.7 | 0.00 | 0.00 | 0.00 | 36 | 1011.9 |
| 20260504172219 | 21 | 210 | 9.7 | 14.5 | 0.00 | 0.00 | 0.00 | 35 | 1011.7 |
| 20260504172151 | 21 | 203 | 8.0 | 11.3 | 0.00 | 0.00 | 0.00 | 34 | 1011.9 |
| 20260504172027 | 21 | 237 | 8.0 | 12.9 | 0.00 | 0.00 | 0.00 | 36 | 1012.0 |
| 20260504171922 | 21 | 198 | 8.0 | 12.9 | 0.00 | 0.00 | 0.00 | 37 | 1011.6 |
| 20260504171838 | 21 | 193 | 9.7 | 11.3 | 0.00 | 0.00 | 0.00 | 36 | 1011.8 |
| 20260504171809 | 21 | 229 | 1.6 | 9.7 | 0.00 | 0.00 | 0.00 | 36 | 1011.8 |
| 20260504171625 | 21 | 213 | 8.0 | 16.1 | 0.00 | 0.00 | 0.00 | 36 | 1011.9 |
| 20260504171521 | 21 | 205 | 6.4 | 14.5 | 0.00 | 0.00 | 0.00 | 38 | 1011.9 |
| 20260504171416 | 21 | 207 | 6.4 | 17.7 | 0.00 | 0.00 | 0.00 | 36 | 1012.0 |
| 20260504171328 | 21 | 10 | 4.8 | 9.7 | 0.00 | 0.00 | 0.00 | 36 | 1012.2 |
| 20260504171223 | 21 | 220 | 3.2 | 9.7 | 0.00 | 0.00 | 0.00 | 38 | 1012.1 |
| 20260504171119 | 21 | 24 | 4.8 | 9.7 | 0.00 | 0.00 | 0.00 | 37 | 1012.2 |
| 20260504171030 | 20 | 208 | 3.2 | 6.4 | 0.00 | 0.00 | 0.00 | 38 | 1012.0 |
| 20260504170926 | 20 | 245 | 8.0 | 11.3 | 0.00 | 0.00 | 0.00 | 37 | 1012.0 |
| 20260504170822 | 20 | 203 | 8.0 | 14.5 | 0.00 | 0.00 | 0.00 | 38 | 1012.1 |
| 20260504170717 | 20 | 196 | 9.7 | 12.9 | 0.00 | 0.00 | 0.00 | 37 | 1012.0 |
| 20260504170629 | 21 | 198 | 11.3 | 19.3 | 0.00 | 0.00 | 0.00 | 37 | 1012.0 |
| 20260504170525 | 20 | 196 | 6.4 | 16.1 | 0.00 | 0.00 | 0.00 | 37 | 1012.0 |
| 20260504170420 | 20 | 193 | 6.4 | 12.9 | 0.00 | 0.00 | 0.00 | 37 | 1012.0 |
| 20260504170336 | 20 | 200 | 6.4 | 9.7 | 0.00 | 0.00 | 0.00 | 39 | 1012.1 |
| 20260504170227 | 20 | 201 | 6.4 | 9.7 | 0.00 | 0.00 | 0.00 | 39 | 1012.2 |
| 20260504170143 | 20 | 192 | 11.3 | 20.9 | 0.00 | 0.00 | 0.00 | 36 | 1012.2 |
| 20260504160428 | 19 | 196 | 16.1 | 20.9 | 0.00 | 0.00 | 0.00 | 38 | 1013.1 |
| 20260504160323 | 19 | 205 | 11.3 | 17.7 | 0.00 | 0.00 | 0.00 | 38 | 1013.0 |
| 20260504160219 | 19 | 201 | 12.9 | 17.7 | 0.00 | 0.00 | 0.00 | 37 | 1013.1 |
| 20260504160131 | 19 | 196 | 12.9 | 17.7 | 0.00 | 0.00 | 0.00 | 37 | 1013.0 |
| 20260504151138 | 20 | 198 | 8.0 | 14.5 | 0.00 | 0.00 | 0.00 | 40 | 1013.3 |
| 20260504151030 | 19 | 291 | 3.2 | 6.4 | 0.00 | 0.00 | 0.00 | 40 | 1013.4 |
| 20260504150926 | 19 | 197 | 3.2 | 4.8 | 0.00 | 0.00 | 0.00 | 42 | 1013.5 |
| 20260504150821 | 18 | 226 | 3.2 | 8.0 | 0.00 | 0.00 | 0.00 | 40 | 1013.5 |
| 20260504150717 | 18 | 212 | 6.4 | 11.3 | 0.00 | 0.00 | 0.00 | 42 | 1013.4 |
| 20260504150648 | 18 | 196 | 8.0 | 9.7 | 0.00 | 0.00 | 0.00 | 41 | 1013.4 |
| 20260504150524 | 18 | 205 | 6.4 | 12.9 | 0.00 | 0.00 | 0.00 | 41 | 1013.5 |
| 20260504150420 | 18 | 185 | 9.7 | 20.9 | 0.00 | 0.00 | 0.00 | 40 | 1013.5 |
| 20260504150335 | 18 | 189 | 11.3 | 19.3 | 0.00 | 0.00 | 0.00 | 40 | 1013.5 |
| 20260504150227 | 18 | 191 | 8.0 | 17.7 | 0.00 | 0.00 | 0.00 | 41 | 1013.3 |
| 20260504150123 | 18 | 182 | 8.0 | 14.5 | 0.00 | 0.00 | 0.00 | 42 | 1013.5 |
| 20260504141318 | 17 | 185 | 6.4 | 9.7 | 0.00 | 0.00 | 0.00 | 47 | 1014.0 |
| 20260504141230 | 17 | 195 | 6.4 | 11.3 | 0.00 | 0.00 | 0.00 | 48 | 1013.9 |
| 20260504141126 | 17 | 224 | 8.0 | 14.5 | 0.00 | 0.00 | 0.00 | 47 | 1014.0 |
| 20260504141022 | 17 | 210 | 9.7 | 11.3 | 0.00 | 0.00 | 0.00 | 47 | 1013.7 |
| 20260504140917 | 17 | 200 | 8.0 | 14.5 | 0.00 | 0.00 | 0.00 | 49 | 1013.8 |
| 20260504140849 | 16 | 196 | 9.7 | 14.5 | 0.00 | 0.00 | 0.00 | 50 | 1013.9 |
| 20260504140724 | 17 | 196 | 9.7 | 14.5 | 0.00 | 0.00 | 0.00 | 49 | 1013.9 |
| 20260504140619 | 17 | 177 | 6.4 | 14.5 | 0.00 | 0.00 | 0.00 | 49 | 1013.7 |
| 20260504140515 | 17 | 204 | 9.7 | 14.5 | 0.00 | 0.00 | 0.00 | 50 | 1013.8 |
| 20260504140427 | 17 | 195 | 6.4 | 11.3 | 0.00 | 0.00 | 0.00 | 50 | 1013.8 |
| 20260504140343 | 16 | 227 | 4.8 | 8.0 | 0.00 | 0.00 | 0.00 | 49 | 1014.0 |
| 20260504140218 | 16 | 204 | 4.8 | 11.3 | 0.00 | 0.00 | 0.00 | 51 | 1013.8 |
| 20260504140150 | 16 | 195 | 8.0 | 14.5 | 0.00 | 0.00 | 0.00 | 50 | 1013.8 |
| 20260504130716 | 15 | 192 | 6.4 | 9.7 | 0.00 | 0.00 | 0.00 | 55 | 1014.5 |
| 20260504130628 | 15 | 197 | 6.4 | 9.7 | 0.00 | 0.00 | 0.00 | 55 | 1014.6 |
| 20260504130544 | 15 | 205 | 6.4 | 8.0 | 0.00 | 0.00 | 0.00 | 56 | 1014.5 |
| 20260504130419 | 15 | 190 | 8.0 | 11.3 | 0.00 | 0.00 | 0.00 | 55 | 1014.5 |
| 20260504130331 | 15 | 186 | 6.4 | 11.3 | 0.00 | 0.00 | 0.00 | 56 | 1014.7 |
| 20260504130226 | 15 | 221 | 3.2 | 14.5 | 0.00 | 0.00 | 0.00 | 55 | 1014.6 |
| 20260504130122 | 15 | 208 | 6.4 | 11.3 | 0.00 | 0.00 | 0.00 | 55 | 1014.5 |
| 20260504120219 | 11 | 196 | 4.8 | 4.8 | 0.00 | 0.00 | 0.00 | 65 | 1014.9 |
| 20260504120151 | 11 | 304 | 4.8 | 8.0 | 0.00 | 0.00 | 0.00 | 64 | 1015.0 |
| 20260504110629 | 8 | 210 | 4.8 | 6.4 | 0.00 | 0.00 | 0.00 | 70 | 1015.2 |
| 20260504110525 | 8 | 189 | 1.6 | 6.4 | 0.00 | 0.00 | 0.00 | 70 | 1015.2 |
| 20260504110420 | 8 | 181 | 3.2 | 4.8 | 0.00 | 0.00 | 0.00 | 71 | 1015.2 |
| 20260504110316 | 8 | 188 | 3.2 | 6.4 | 0.00 | 0.00 | 0.00 | 71 | 1015.2 |
| 20260504110227 | 8 | 200 | 1.6 | 4.8 | 0.00 | 0.00 | 0.00 | 71 | 1015.2 |
| 20260504110123 | 7 | 202 | 3.2 | 4.8 | 0.00 | 0.00 | 0.00 | 71 | 1015.1 |
| 20260504100516 | 5 | 37 | 0.0 | 3.2 | 0.00 | 0.00 | 0.00 | 79 | 1014.9 |
| 20260504100428 | 5 | 303 | 0.0 | 3.2 | 0.00 | 0.00 | 0.00 | 79 | 1015.1 |
| 20260504100324 | 5 | 71 | 1.6 | 3.2 | 0.00 | 0.00 | 0.00 | 80 | 1014.9 |
| 20260504100240 | 5 | 0.0 | 1.6 | 0.00 | 0.00 | 0.00 | 79 | 1015.1 | |
| 20260504100115 | 5 | 0.0 | 3.2 | 0.00 | 0.00 | 0.00 | 79 | 1015.0 | |
| 20260504090125 | 6 | 115 | 1.6 | 3.2 | 0.00 | 0.00 | 0.00 | 74 | 1014.8 |
| 20260504081916 | 7 | 176 | 1.6 | 3.2 | 0.00 | 0.00 | 0.00 | 65 | 1014.6 |
| 20260504081828 | 7 | 186 | 3.2 | 4.8 | 0.00 | 0.00 | 0.00 | 66 | 1014.7 |
| 20260504081724 | 7 | 197 | 3.2 | 6.4 | 0.00 | 0.00 | 0.00 | 66 | 1014.6 |
| 20260504081619 | 7 | 194 | 3.2 | 4.8 | 0.00 | 0.00 | 0.00 | 66 | 1014.5 |
| 20260504081515 | 7 | 190 | 1.6 | 4.8 | 0.00 | 0.00 | 0.00 | 66 | 1014.5 |
| 20260504081427 | 7 | 193 | 3.2 | 4.8 | 0.00 | 0.00 | 0.00 | 66 | 1014.5 |
| 20260504081322 | 7 | 199 | 3.2 | 4.8 | 0.00 | 0.00 | 0.00 | 66 | 1014.5 |
| 20260504081218 | 7 | 209 | 3.2 | 3.2 | 0.00 | 0.00 | 0.00 | 65 | 1014.4 |
| 20260504081130 | 7 | 205 | 3.2 | 3.2 | 0.00 | 0.00 | 0.00 | 66 | 1014.4 |
| 20260504081045 | 7 | 218 | 3.2 | 4.8 | 0.00 | 0.00 | 0.00 | 66 | 1014.3 |
| 20260504080921 | 7 | 178 | 1.6 | 4.8 | 0.00 | 0.00 | 0.00 | 66 | 1014.6 |
| 20260504080816 | 7 | 198 | 3.2 | 4.8 | 0.00 | 0.00 | 0.00 | 67 | 1014.6 |
| 20260504080728 | 7 | 188 | 3.2 | 4.8 | 0.00 | 0.00 | 0.00 | 68 | 1014.5 |
| 20260504080623 | 7 | 180 | 3.2 | 4.8 | 0.00 | 0.00 | 0.00 | 68 | 1014.5 |
| 20260504080519 | 7 | 182 | 3.2 | 4.8 | 0.00 | 0.00 | 0.00 | 68 | 1014.3 |
| 20260504080431 | 7 | 178 | 4.8 | 4.8 | 0.00 | 0.00 | 0.00 | 68 | 1014.4 |
| 20260504080326 | 7 | 198 | 3.2 | 6.4 | 0.00 | 0.00 | 0.00 | 68 | 1014.5 |
| 20260504080222 | 7 | 208 | 4.8 | 4.8 | 0.00 | 0.00 | 0.00 | 67 | 1014.5 |
| 20260504080117 | 7 | 185 | 3.2 | 4.8 | 0.00 | 0.00 | 0.00 | 67 | 1014.2 |
| 20260504070320 | 9 | 241 | 4.8 | 6.4 | 0.00 | 0.00 | 0.00 | 55 | 1014.3 |
| 20260504070231 | 9 | 169 | 1.6 | 3.2 | 0.00 | 0.00 | 0.00 | 55 | 1014.3 |
| 20260504070146 | 9 | 200 | 3.2 | 6.4 | 0.00 | 0.00 | 0.00 | 55 | 1014.2 |
| 20260504060224 | 9 | 183 | 3.2 | 8.0 | 0.00 | 0.00 | 0.00 | 55 | 1014.2 |
| 20260504060140 | 9 | 198 | 3.2 | 4.8 | 0.00 | 0.00 | 0.00 | 55 | 1014.1 |
| 20260504050723 | 9 | 206 | 3.2 | 4.8 | 0.00 | 0.00 | 0.00 | 55 | 1013.8 |
| 20260504050619 | 9 | 199 | 1.6 | 3.2 | 0.00 | 0.00 | 0.00 | 54 | 1013.9 |
| 20260504050531 | 9 | 202 | 1.6 | 4.8 | 0.00 | 0.00 | 0.00 | 54 | 1014.0 |
| 20260504050426 | 9 | 181 | 3.2 | 6.4 | 0.00 | 0.00 | 0.00 | 54 | 1014.1 |
| 20260504050322 | 9 | 247 | 1.6 | 3.2 | 0.00 | 0.00 | 0.00 | 54 | 1013.9 |
| 20260504050237 | 9 | 196 | 4.8 | 6.4 | 0.00 | 0.00 | 0.00 | 54 | 1013.9 |
| 20260504050149 | 9 | 202 | 3.2 | 4.8 | 0.00 | 0.00 | 0.00 | 55 | 1013.9 |
| 20260504050024 | 9 | 187 | 3.2 | 4.8 | 0.00 | 0.00 | 0.00 | 54 | 1013.8 |
| 20260504045920 | 9 | 224 | 1.6 | 4.8 | 0.00 | 0.00 | 0.00 | 54 | 1013.7 |
| 20260504045816 | 9 | 175 | 1.6 | 3.2 | 0.00 | 0.00 | 0.00 | 54 | 1013.8 |
| 20260504045727 | 9 | 195 | 3.2 | 6.4 | 0.00 | 0.00 | 0.00 | 54 | 1013.8 |
| 20260504045623 | 9 | 192 | 3.2 | 4.8 | 0.00 | 0.00 | 0.00 | 55 | 1013.7 |
| 20260504045518 | 9 | 203 | 3.2 | 4.8 | 0.00 | 0.00 | 0.00 | 54 | 1014.0 |
| 20260504045450 | 9 | 207 | 3.2 | 4.8 | 0.00 | 0.00 | 0.00 | 55 | 1013.9 |
| 20260504045326 | 9 | 175 | 3.2 | 3.2 | 0.00 | 0.00 | 0.00 | 55 | 1013.9 |
| 20260504045301 | 8 | 201 | 3.2 | 3.2 | 0.00 | 0.00 | 0.00 | 55 | 1013.9 |
| 20260504045117 | 8 | 190 | 3.2 | 4.8 | 0.00 | 0.00 | 0.00 | 55 | 1014.0 |
| 20260504045028 | 8 | 190 | 1.6 | 3.2 | 0.00 | 0.00 | 0.00 | 55 | 1013.9 |
| 20260504044924 | 8 | 184 | 3.2 | 4.8 | 0.00 | 0.00 | 0.00 | 56 | 1013.9 |
| 20260504044819 | 8 | 194 | 3.2 | 4.8 | 0.00 | 0.00 | 0.00 | 55 | 1013.8 |
| 20260504044715 | 8 | 203 | 3.2 | 4.8 | 0.00 | 0.00 | 0.00 | 56 | 1013.7 |
| 20260504044627 | 8 | 132 | 1.6 | 3.2 | 0.00 | 0.00 | 0.00 | 56 | 1013.9 |
| 20260504044522 | 8 | 191 | 1.6 | 3.2 | 0.00 | 0.00 | 0.00 | 56 | 1013.9 |
| 20260504044438 | 8 | 193 | 3.2 | 4.8 | 0.00 | 0.00 | 0.00 | 56 | 1013.9 |
| 20260504044329 | 8 | 210 | 1.6 | 1.6 | 0.00 | 0.00 | 0.00 | 56 | 1013.7 |
| 20260504044225 | 8 | 187 | 1.6 | 3.2 | 0.00 | 0.00 | 0.00 | 57 | 1013.9 |
| 20260504044120 | 8 | 154 | 1.6 | 3.2 | 0.00 | 0.00 | 0.00 | 57 | 1013.8 |
| 20260504044016 | 8 | 195 | 1.6 | 3.2 | 0.00 | 0.00 | 0.00 | 56 | 1013.9 |
| 20260504043928 | 8 | 0.0 | 1.6 | 0.00 | 0.00 | 0.00 | 56 | 1013.7 | |
| 20260504043824 | 8 | 0.0 | 1.6 | 0.00 | 0.00 | 0.00 | 56 | 1013.9 | |
| 20260504043719 | 8 | 183 | 0.0 | 3.2 | 0.00 | 0.00 | 0.00 | 56 | 1013.9 |
| 20260504043631 | 8 | 201 | 1.6 | 1.6 | 0.00 | 0.00 | 0.00 | 56 | 1013.9 |
| 20260504043526 | 8 | 187 | 1.6 | 4.8 | 0.00 | 0.00 | 0.00 | 56 | 1013.8 |
| 20260504043422 | 8 | 202 | 1.6 | 3.2 | 0.00 | 0.00 | 0.00 | 56 | 1013.9 |
| 20260504043318 | 8 | 175 | 0.0 | 1.6 | 0.00 | 0.00 | 0.00 | 56 | 1013.9 |
| 20260504043229 | 8 | 183 | 1.6 | 1.6 | 0.00 | 0.00 | 0.00 | 56 | 1014.0 |
| 20260504043125 | 8 | 195 | 1.6 | 3.2 | 0.00 | 0.00 | 0.00 | 56 | 1013.9 |
| 20260504043021 | 8 | 156 | 0.0 | 1.6 | 0.00 | 0.00 | 0.00 | 56 | 1014.0 |
| 20260504042916 | 8 | 183 | 0.0 | 3.2 | 0.00 | 0.00 | 0.00 | 56 | 1013.8 |
| 20260504042828 | 8 | 173 | 1.6 | 3.2 | 0.00 | 0.00 | 0.00 | 56 | 1013.7 |
| 20260504042724 | 8 | 185 | 1.6 | 3.2 | 0.00 | 0.00 | 0.00 | 56 | 1013.7 |
| 20260504042619 | 8 | 181 | 3.2 | 3.2 | 0.00 | 0.00 | 0.00 | 56 | 1013.8 |
| 20260504042531 | 8 | 190 | 1.6 | 4.8 | 0.00 | 0.00 | 0.00 | 56 | 1013.8 |
| 20260504042446 | 8 | 192 | 3.2 | 4.8 | 0.00 | 0.00 | 0.00 | 56 | 1013.7 |
| 20260504042322 | 8 | 184 | 3.2 | 4.8 | 0.00 | 0.00 | 0.00 | 56 | 1013.7 |
| 20260504042217 | 8 | 185 | 3.2 | 3.2 | 0.00 | 0.00 | 0.00 | 56 | 1013.8 |
| 20260504042129 | 8 | 182 | 3.2 | 3.2 | 0.00 | 0.00 | 0.00 | 56 | 1013.8 |
| 20260504042025 | 8 | 184 | 1.6 | 3.2 | 0.00 | 0.00 | 0.00 | 56 | 1013.8 |
| 20260504041920 | 8 | 179 | 1.6 | 3.2 | 0.00 | 0.00 | 0.00 | 56 | 1013.7 |
| 20260504041836 | 8 | 181 | 3.2 | 3.2 | 0.00 | 0.00 | 0.00 | 56 | 1013.5 |
| 20260504041728 | 8 | 179 | 3.2 | 3.2 | 0.00 | 0.00 | 0.00 | 56 | 1013.4 |
| 20260504041643 | 8 | 184 | 1.6 | 3.2 | 0.00 | 0.00 | 0.00 | 56 | 1013.8 |
| 20260504041539 | 8 | 167 | 1.6 | 3.2 | 0.00 | 0.00 | 0.00 | 56 | 1013.6 |
| 20260504041451 | 9 | 174 | 3.2 | 3.2 | 0.00 | 0.00 | 0.00 | 56 | 1013.8 |
| 20260504041346 | 9 | 196 | 3.2 | 3.2 | 0.00 | 0.00 | 0.00 | 56 | 1013.7 |
| 20260504041222 | 9 | 186 | 1.6 | 3.2 | 0.00 | 0.00 | 0.00 | 55 | 1013.5 |
| 20260504041118 | 9 | 176 | 3.2 | 4.8 | 0.00 | 0.00 | 0.00 | 56 | 1013.6 |
| 20260504041029 | 9 | 183 | 3.2 | 4.8 | 0.00 | 0.00 | 0.00 | 55 | 1013.6 |
| 20260504040925 | 9 | 181 | 1.6 | 3.2 | 0.00 | 0.00 | 0.00 | 56 | 1013.6 |
| 20260504040840 | 9 | 163 | 3.2 | 4.8 | 0.00 | 0.00 | 0.00 | 55 | 1013.5 |
| 20260504040716 | 9 | 186 | 3.2 | 3.2 | 0.00 | 0.00 | 0.00 | 55 | 1013.5 |
| 20260504040648 | 9 | 179 | 3.2 | 3.2 | 0.00 | 0.00 | 0.00 | 54 | 1013.7 |
| 20260504040523 | 9 | 193 | 1.6 | 3.2 | 0.00 | 0.00 | 0.00 | 55 | 1013.7 |
| 20260504040419 | 9 | 191 | 3.2 | 4.8 | 0.00 | 0.00 | 0.00 | 54 | 1013.6 |
| 20260504040330 | 9 | 200 | 3.2 | 4.8 | 0.00 | 0.00 | 0.00 | 54 | 1013.6 |
| 20260504040226 | 9 | 182 | 1.6 | 3.2 | 0.00 | 0.00 | 0.00 | 55 | 1013.6 |
| 20260504040122 | 9 | 184 | 3.2 | 3.2 | 0.00 | 0.00 | 0.00 | 55 | 1013.5 |
| 20260504040018 | 9 | 183 | 1.6 | 3.2 | 0.00 | 0.00 | 0.00 | 55 | 1013.4 |
| 20260504035949 | 9 | 181 | 3.2 | 3.2 | 0.00 | 0.00 | 0.00 | 55 | 1013.6 |
| 20260504035825 | 9 | 196 | 3.2 | 4.8 | 0.00 | 0.00 | 0.00 | 55 | 1013.7 |
| 20260504035720 | 9 | 189 | 3.2 | 3.2 | 0.00 | 0.00 | 0.00 | 55 | 1013.6 |
| 20260504035616 | 9 | 190 | 1.6 | 3.2 | 0.00 | 0.00 | 0.00 | 55 | 1013.6 |
| 20260504035528 | 9 | 177 | 1.6 | 3.2 | 0.00 | 0.00 | 0.00 | 55 | 1013.5 |
| 20260504035443 | 9 | 191 | 1.6 | 4.8 | 0.00 | 0.00 | 0.00 | 55 | 1013.6 |
| 20260504035319 | 9 | 174 | 3.2 | 4.8 | 0.00 | 0.00 | 0.00 | 55 | 1013.6 |
| 20260504035230 | 8 | 185 | 1.6 | 3.2 | 0.00 | 0.00 | 0.00 | 55 | 1013.6 |
| 20260504035146 | 8 | 182 | 1.6 | 3.2 | 0.00 | 0.00 | 0.00 | 55 | 1013.5 |
| 20260504035021 | 8 | 174 | 1.6 | 4.8 | 0.00 | 0.00 | 0.00 | 55 | 1013.7 |
| 20260504034917 | 8 | 191 | 3.2 | 3.2 | 0.00 | 0.00 | 0.00 | 56 | 1013.7 |
| 20260504034829 | 8 | 186 | 1.6 | 3.2 | 0.00 | 0.00 | 0.00 | 56 | 1013.6 |
| 20260504034724 | 8 | 171 | 1.6 | 3.2 | 0.00 | 0.00 | 0.00 | 56 | 1013.6 |
| 20260504034640 | 8 | 162 | 1.6 | 3.2 | 0.00 | 0.00 | 0.00 | 57 | 1013.5 |
| 20260504034516 | 8 | 179 | 1.6 | 3.2 | 0.00 | 0.00 | 0.00 | 56 | 1013.6 |
| 20260504034427 | 8 | 185 | 1.6 | 3.2 | 0.00 | 0.00 | 0.00 | 55 | 1013.6 |
| 20260504034322 | 8 | 190 | 3.2 | 4.8 | 0.00 | 0.00 | 0.00 | 56 | 1013.5 |
| 20260504034218 | 8 | 191 | 1.6 | 3.2 | 0.00 | 0.00 | 0.00 | 59 | 1013.6 |
| 20260504034130 | 8 | 172 | 1.6 | 4.8 | 0.00 | 0.00 | 0.00 | 58 | 1013.6 |
| 20260504034026 | 8 | 185 | 3.2 | 4.8 | 0.00 | 0.00 | 0.00 | 57 | 1013.5 |
| 20260504033921 | 8 | 181 | 1.6 | 3.2 | 0.00 | 0.00 | 0.00 | 58 | 1013.6 |
| 20260504033817 | 8 | 184 | 1.6 | 3.2 | 0.00 | 0.00 | 0.00 | 60 | 1013.5 |
| 20260504033729 | 8 | 161 | 1.6 | 3.2 | 0.00 | 0.00 | 0.00 | 62 | 1013.4 |
| 20260504033644 | 8 | 140 | 1.6 | 3.2 | 0.00 | 0.00 | 0.00 | 62 | 1013.4 |
| 20260504033520 | 8 | 112 | 1.6 | 3.2 | 0.00 | 0.00 | 0.00 | 59 | 1013.4 |
| 20260504033435 | 8 | 199 | 1.6 | 3.2 | 0.00 | 0.00 | 0.00 | 57 | 1013.4 |
| 20260504033327 | 8 | 166 | 0.0 | 3.2 | 0.00 | 0.00 | 0.00 | 57 | 1013.6 |
| 20260504033222 | 8 | 183 | 1.6 | 3.2 | 0.00 | 0.00 | 0.00 | 56 | 1013.5 |
| 20260504033118 | 8 | 192 | 1.6 | 3.2 | 0.00 | 0.00 | 0.00 | 56 | 1013.5 |
| 20260504033030 | 8 | 185 | 1.6 | 3.2 | 0.00 | 0.00 | 0.00 | 57 | 1013.4 |
| 20260504032925 | 9 | 166 | 1.6 | 3.2 | 0.00 | 0.00 | 0.00 | 59 | 1013.4 |
| 20260504032821 | 9 | 202 | 1.6 | 3.2 | 0.00 | 0.00 | 0.00 | 57 | 1013.4 |
| 20260504032716 | 9 | 172 | 3.2 | 3.2 | 0.00 | 0.00 | 0.00 | 56 | 1013.4 |
| 20260504032628 | 9 | 185 | 3.2 | 3.2 | 0.00 | 0.00 | 0.00 | 55 | 1013.5 |
| 20260504032544 | 9 | 187 | 3.2 | 3.2 | 0.00 | 0.00 | 0.00 | 55 | 1013.5 |
| 20260504032419 | 8 | 191 | 3.2 | 3.2 | 0.00 | 0.00 | 0.00 | 56 | 1013.4 |
| 20260504032411 | 8 | 179 | 1.6 | 3.2 | 0.00 | 0.00 | 0.00 | 55 | 1013.4 |
| 20260504032226 | 8 | 192 | 1.6 | 3.2 | 0.00 | 0.00 | 0.00 | 55 | 1013.4 |
| 20260504032122 | 8 | 190 | 3.2 | 6.4 | 0.00 | 0.00 | 0.00 | 56 | 1013.6 |
| 20260504032038 | 8 | 193 | 3.2 | 4.8 | 0.00 | 0.00 | 0.00 | 59 | 1013.5 |
| 20260504031929 | 8 | 155 | 1.6 | 3.2 | 0.00 | 0.00 | 0.00 | 62 | 1013.5 |
| 20260504031825 | 8 | 154 | 1.6 | 3.2 | 0.00 | 0.00 | 0.00 | 59 | 1013.2 |
| 20260504031720 | 8 | 191 | 1.6 | 3.2 | 0.00 | 0.00 | 0.00 | 58 | 1013.4 |
| 20260504031616 | 8 | 201 | 1.6 | 3.2 | 0.00 | 0.00 | 0.00 | 60 | 1013.4 |
| 20260504031528 | 8 | 186 | 1.6 | 3.2 | 0.00 | 0.00 | 0.00 | 62 | 1013.2 |
| 20260504031423 | 8 | 177 | 1.6 | 3.2 | 0.00 | 0.00 | 0.00 | 64 | 1013.3 |
| 20260504031338 | 8 | 151 | 1.6 | 3.2 | 0.00 | 0.00 | 0.00 | 65 | 1013.1 |
| 20260504031230 | 8 | 113 | 1.6 | 3.2 | 0.00 | 0.00 | 0.00 | 65 | 1013.4 |
| 20260504031126 | 8 | 128 | 1.6 | 3.2 | 0.00 | 0.00 | 0.00 | 65 | 1013.3 |
| 20260504031021 | 8 | 122 | 3.2 | 3.2 | 0.00 | 0.00 | 0.00 | 64 | 1013.3 |
| 20260504030917 | 8 | 116 | 3.2 | 3.2 | 0.00 | 0.00 | 0.00 | 64 | 1013.1 |
| 20260504030829 | 8 | 123 | 1.6 | 3.2 | 0.00 | 0.00 | 0.00 | 64 | 1013.3 |
| 20260504030725 | 8 | 136 | 1.6 | 3.2 | 0.00 | 0.00 | 0.00 | 64 | 1013.2 |
| 20260504030640 | 8 | 141 | 0.0 | 1.6 | 0.00 | 0.00 | 0.00 | 63 | 1013.6 |
| 20260504030516 | 8 | 103 | 1.6 | 3.2 | 0.00 | 0.00 | 0.00 | 64 | 1013.4 |
| 20260504030448 | 8 | 126 | 3.2 | 3.2 | 0.00 | 0.00 | 0.00 | 63 | 1013.3 |
| 20260504030323 | 8 | 131 | 1.6 | 3.2 | 0.00 | 0.00 | 0.00 | 63 | 1013.3 |
| 20260504030219 | 8 | 158 | 1.6 | 3.2 | 0.00 | 0.00 | 0.00 | 63 | 1013.3 |
| 20260504030131 | 8 | 109 | 1.6 | 3.2 | 0.00 | 0.00 | 0.00 | 63 | 1013.3 |
| 20260504030026 | 8 | 137 | 0.0 | 3.2 | 0.00 | 0.00 | 0.00 | 63 | 1013.5 |
| 20260504025921 | 8 | 119 | 1.6 | 3.2 | 0.00 | 0.00 | 0.00 | 62 | 1013.2 |
| 20260504025817 | 8 | 165 | 1.6 | 3.2 | 0.00 | 0.00 | 0.00 | 61 | 1013.4 |
| 20260504025729 | 8 | 0.0 | 1.6 | 0.00 | 0.00 | 0.00 | 62 | 1013.5 | |
| 20260504025625 | 8 | 150 | 0.0 | 3.2 | 0.00 | 0.00 | 0.00 | 63 | 1013.3 |
| 20260504025520 | 8 | 71 | 0.0 | 3.2 | 0.00 | 0.00 | 0.00 | 62 | 1013.2 |
| 20260504025416 | 8 | 124 | 1.6 | 3.2 | 0.00 | 0.00 | 0.00 | 62 | 1013.4 |
| 20260504025328 | 8 | 133 | 1.6 | 3.2 | 0.00 | 0.00 | 0.00 | 62 | 1013.2 |
| 20260504025223 | 8 | 141 | 1.6 | 3.2 | 0.00 | 0.00 | 0.00 | 61 | 1013.1 |
| 20260504025119 | 9 | 133 | 0.0 | 3.2 | 0.00 | 0.00 | 0.00 | 62 | 1013.2 |
| 20260504025051 | 9 | 135 | 1.6 | 3.2 | 0.00 | 0.00 | 0.00 | 62 | 1013.3 |
| 20260504024926 | 9 | 132 | 1.6 | 3.2 | 0.00 | 0.00 | 0.00 | 61 | 1013.2 |
| 20260504024822 | 9 | 115 | 0.0 | 1.6 | 0.00 | 0.00 | 0.00 | 60 | 1013.4 |
| 20260504024717 | 9 | 0.0 | 1.6 | 0.00 | 0.00 | 0.00 | 60 | 1013.3 | |
| 20260504024629 | 9 | 110 | 0.0 | 3.2 | 0.00 | 0.00 | 0.00 | 60 | 1013.4 |
| 20260504024525 | 10 | 131 | 1.6 | 3.2 | 0.00 | 0.00 | 0.00 | 59 | 1013.2 |
| 20260504024420 | 10 | 129 | 1.6 | 3.2 | 0.00 | 0.00 | 0.00 | 58 | 1013.4 |
| 20260504024316 | 10 | 142 | 0.0 | 3.2 | 0.00 | 0.00 | 0.00 | 57 | 1013.4 |
| 20260504024229 | 10 | 145 | 0.0 | 3.2 | 0.00 | 0.00 | 0.00 | 54 | 1013.3 |
| 20260504024143 | 10 | 177 | 1.6 | 3.2 | 0.00 | 0.00 | 0.00 | 53 | 1013.2 |
| 20260504024019 | 10 | 177 | 1.6 | 3.2 | 0.00 | 0.00 | 0.00 | 53 | 1013.4 |
| 20260504023930 | 10 | 176 | 3.2 | 3.2 | 0.00 | 0.00 | 0.00 | 54 | 1013.4 |
| 20260504023826 | 10 | 166 | 3.2 | 3.2 | 0.00 | 0.00 | 0.00 | 54 | 1013.3 |
| 20260504023722 | 10 | 174 | 1.6 | 3.2 | 0.00 | 0.00 | 0.00 | 52 | 1013.5 |
| 20260504023617 | 10 | 192 | 1.6 | 3.2 | 0.00 | 0.00 | 0.00 | 51 | 1013.2 |
| 20260504023529 | 9 | 191 | 1.6 | 3.2 | 0.00 | 0.00 | 0.00 | 51 | 1013.3 |
| 20260504023425 | 9 | 185 | 3.2 | 4.8 | 0.00 | 0.00 | 0.00 | 53 | 1013.4 |
| 20260504023320 | 9 | 192 | 1.6 | 3.2 | 0.00 | 0.00 | 0.00 | 54 | 1013.5 |
| 20260504023216 | 9 | 182 | 0.0 | 3.2 | 0.00 | 0.00 | 0.00 | 54 | 1013.3 |
| 20260504023128 | 9 | 0.0 | 3.2 | 0.00 | 0.00 | 0.00 | 54 | 1013.2 | |
| 20260504023023 | 9 | 0.0 | 3.2 | 0.00 | 0.00 | 0.00 | 55 | 1013.4 | |
| 20260504022919 | 9 | 132 | 1.6 | 3.2 | 0.00 | 0.00 | 0.00 | 54 | 1013.3 |
| 20260504022831 | 8 | 192 | 0.0 | 1.6 | 0.00 | 0.00 | 0.00 | 53 | 1013.4 |
| 20260504022726 | 8 | 239 | 0.0 | 1.6 | 0.00 | 0.00 | 0.00 | 55 | 1013.3 |
| 20260504022622 | 8 | 0.0 | 1.6 | 0.00 | 0.00 | 0.00 | 58 | 1013.2 | |
| 20260504022517 | 8 | 0.0 | 1.6 | 0.00 | 0.00 | 0.00 | 59 | 1013.2 | |
| 20260504022429 | 8 | 0.0 | 1.6 | 0.00 | 0.00 | 0.00 | 59 | 1013.1 | |
| 20260504022345 | 8 | 121 | 0.0 | 1.6 | 0.00 | 0.00 | 0.00 | 59 | 1013.1 |
| 20260504022220 | 8 | 123 | 0.0 | 3.2 | 0.00 | 0.00 | 0.00 | 59 | 1013.4 |
| 20260504022116 | 8 | 139 | 0.0 | 1.6 | 0.00 | 0.00 | 0.00 | 58 | 1013.4 |
| 20260504022027 | 8 | 122 | 0.0 | 1.6 | 0.00 | 0.00 | 0.00 | 58 | 1013.4 |
| 20260504021943 | 8 | 0.0 | 0.0 | 0.00 | 0.00 | 0.00 | 58 | 1013.4 | |
| 20260504021819 | 8 | 0.0 | 0.0 | 0.00 | 0.00 | 0.00 | 57 | 1013.2 | |
| 20260504021731 | 8 | 148 | 1.6 | 1.6 | 0.00 | 0.00 | 0.00 | 55 | 1013.3 |
| 20260504021646 | 8 | 186 | 0.0 | 1.6 | 0.00 | 0.00 | 0.00 | 54 | 1013.1 |
| 20260504021522 | 8 | 0.0 | 3.2 | 0.00 | 0.00 | 0.00 | 54 | 1013.3 | |
| 20260504021417 | 8 | 173 | 1.6 | 3.2 | 0.00 | 0.00 | 0.00 | 54 | 1013.4 |
| 20260504021329 | 8 | 0.0 | 3.2 | 0.00 | 0.00 | 0.00 | 56 | 1013.3 | |
| 20260504021225 | 8 | 0.0 | 1.6 | 0.00 | 0.00 | 0.00 | 57 | 1013.5 | |
| 20260504021120 | 8 | 0.0 | 1.6 | 0.00 | 0.00 | 0.00 | 58 | 1013.4 | |
| 20260504021016 | 8 | 0.0 | 1.6 | 0.00 | 0.00 | 0.00 | 57 | 1013.5 | |
| 20260504020948 | 8 | 134 | 0.0 | 1.6 | 0.00 | 0.00 | 0.00 | 57 | 1013.4 |
| 20260504020823 | 8 | 0.0 | 0.0 | 0.00 | 0.00 | 0.00 | 57 | 1013.4 | |
| 20260504020719 | 8 | 0.0 | 1.6 | 0.00 | 0.00 | 0.00 | 58 | 1013.4 | |
| 20260504020630 | 8 | 0.0 | 3.2 | 0.00 | 0.00 | 0.00 | 58 | 1013.4 | |
| 20260504020526 | 8 | 0.0 | 3.2 | 0.00 | 0.00 | 0.00 | 58 | 1013.4 | |
| 20260504020422 | 8 | 89 | 0.0 | 3.2 | 0.00 | 0.00 | 0.00 | 57 | 1013.3 |
| 20260504020317 | 8 | 57 | 0.0 | 1.6 | 0.00 | 0.00 | 0.00 | 56 | 1013.2 |
| 20260504020249 | 8 | 182 | 0.0 | 3.2 | 0.00 | 0.00 | 0.00 | 55 | 1013.4 |
| 20260504020125 | 8 | 0.0 | 1.6 | 0.00 | 0.00 | 0.00 | 56 | 1013.3 | |
| 20260504020020 | 8 | 0.0 | 1.6 | 0.00 | 0.00 | 0.00 | 57 | 1013.5 | |
| 20260504015916 | 8 | 0.0 | 1.6 | 0.00 | 0.00 | 0.00 | 57 | 1013.5 | |
| 20260504015828 | 8 | 0.0 | 1.6 | 0.00 | 0.00 | 0.00 | 57 | 1013.4 | |
| 20260504015723 | 8 | 0.0 | 1.6 | 0.00 | 0.00 | 0.00 | 59 | 1013.3 | |
| 20260504015639 | 8 | 0.0 | 0.0 | 0.00 | 0.00 | 0.00 | 59 | 1013.2 | |
| 20260504015530 | 8 | 0.0 | 1.6 | 0.00 | 0.00 | 0.00 | 59 | 1013.4 | |
| 20260504015426 | 8 | 0.0 | 1.6 | 0.00 | 0.00 | 0.00 | 59 | 1013.3 | |
| 20260504015322 | 8 | 125 | 0.0 | 3.2 | 0.00 | 0.00 | 0.00 | 59 | 1013.3 |
| 20260504015237 | 8 | 140 | 1.6 | 3.2 | 0.00 | 0.00 | 0.00 | 58 | 1013.5 |
| 20260504015129 | 8 | 84 | 1.6 | 3.2 | 0.00 | 0.00 | 0.00 | 58 | 1013.4 |
| 20260504015025 | 8 | 144 | 0.0 | 3.2 | 0.00 | 0.00 | 0.00 | 57 | 1013.4 |
| 20260504014920 | 8 | 0.0 | 1.6 | 0.00 | 0.00 | 0.00 | 58 | 1013.2 | |
| 20260504014816 | 8 | 0.0 | 0.0 | 0.00 | 0.00 | 0.00 | 58 | 1013.4 | |
| 20260504014728 | 8 | 0.0 | 0.0 | 0.00 | 0.00 | 0.00 | 58 | 1013.3 | |
| 20260504014623 | 8 | 0.0 | 0.0 | 0.00 | 0.00 | 0.00 | 57 | 1013.4 | |
| 20260504014519 | 8 | 0.0 | 1.6 | 0.00 | 0.00 | 0.00 | 57 | 1013.2 | |
| 20260504014430 | 8 | 108 | 0.0 | 1.6 | 0.00 | 0.00 | 0.00 | 56 | 1013.3 |
| 20260504014326 | 8 | 0.0 | 0.0 | 0.00 | 0.00 | 0.00 | 56 | 1013.2 | |
| 20260504014221 | 8 | 0.0 | 1.6 | 0.00 | 0.00 | 0.00 | 55 | 1013.1 | |
| 20260504014117 | 8 | 0.0 | 1.6 | 0.00 | 0.00 | 0.00 | 55 | 1013.3 | |
| 20260504014029 | 9 | 171 | 0.0 | 1.6 | 0.00 | 0.00 | 0.00 | 55 | 1013.3 |
| 20260504013924 | 9 | 165 | 1.6 | 3.2 | 0.00 | 0.00 | 0.00 | 54 | 1013.2 |
| 20260504013820 | 9 | 0.0 | 0.0 | 0.00 | 0.00 | 0.00 | 54 | 1013.5 | |
| 20260504013715 | 9 | 0.0 | 1.6 | 0.00 | 0.00 | 0.00 | 54 | 1013.3 | |
| 20260504013647 | 9 | 0.0 | 1.6 | 0.00 | 0.00 | 0.00 | 55 | 1013.2 | |
| 20260504013523 | 9 | 144 | 0.0 | 1.6 | 0.00 | 0.00 | 0.00 | 55 | 1013.0 |
| 20260504013418 | 9 | 0.0 | 1.6 | 0.00 | 0.00 | 0.00 | 55 | 1013.0 | |
| 20260504013350 | 9 | 0.0 | 1.6 | 0.00 | 0.00 | 0.00 | 56 | 1013.2 | |
| 20260504013246 | 9 | 0.0 | 1.6 | 0.00 | 0.00 | 0.00 | 56 | 1013.0 | |
| 20260504013121 | 9 | 97 | 0.0 | 1.6 | 0.00 | 0.00 | 0.00 | 56 | 1012.9 |
| 20260504013017 | 9 | 0.0 | 3.2 | 0.00 | 0.00 | 0.00 | 56 | 1013.0 | |
| 20260504012928 | 9 | 0.0 | 0.0 | 0.00 | 0.00 | 0.00 | 55 | 1013.0 | |
| 20260504012824 | 9 | 0.0 | 1.6 | 0.00 | 0.00 | 0.00 | 55 | 1013.0 | |
| 20260504012740 | 9 | 0.0 | 1.6 | 0.00 | 0.00 | 0.00 | 55 | 1013.0 | |
| 20260504012615 | 10 | 93 | 1.6 | 1.6 | 0.00 | 0.00 | 0.00 | 55 | 1013.0 |
| 20260504012527 | 10 | 67 | 1.6 | 3.2 | 0.00 | 0.00 | 0.00 | 54 | 1013.0 |
| 20260504012423 | 10 | 125 | 1.6 | 1.6 | 0.00 | 0.00 | 0.00 | 54 | 1013.0 |
| 20260504012318 | 10 | 0.0 | 0.0 | 0.00 | 0.00 | 0.00 | 53 | 1012.9 | |
| 20260504012250 | 10 | 0.0 | 0.0 | 0.00 | 0.00 | 0.00 | 53 | 1013.0 | |
| 20260504012125 | 10 | 0.0 | 0.0 | 0.00 | 0.00 | 0.00 | 52 | 1012.9 | |
| 20260504012021 | 10 | 0.0 | 0.0 | 0.00 | 0.00 | 0.00 | 52 | 1013.2 | |
| 20260504011917 | 10 | 0.0 | 0.0 | 0.00 | 0.00 | 0.00 | 53 | 1013.2 | |
| 20260504011828 | 10 | 0.0 | 1.6 | 0.00 | 0.00 | 0.00 | 54 | 1013.0 | |
| 20260504011724 | 10 | 135 | 0.0 | 1.6 | 0.00 | 0.00 | 0.00 | 54 | 1012.7 |
| 20260504011619 | 10 | 141 | 0.0 | 3.2 | 0.00 | 0.00 | 0.00 | 54 | 1012.8 |
| 20260504011515 | 10 | 145 | 0.0 | 1.6 | 0.00 | 0.00 | 0.00 | 53 | 1012.9 |
| 20260504011427 | 10 | 0.0 | 1.6 | 0.00 | 0.00 | 0.00 | 54 | 1012.8 | |
| 20260504011342 | 10 | 15 | 1.6 | 3.2 | 0.00 | 0.00 | 0.00 | 55 | 1012.8 |
| 20260504011258 | 10 | 33 | 1.6 | 1.6 | 0.00 | 0.00 | 0.00 | 55 | 1013.0 |
| 20260504011129 | 10 | 0.0 | 1.6 | 0.00 | 0.00 | 0.00 | 55 | 1012.9 | |
| 20260504011045 | 10 | 159 | 1.6 | 3.2 | 0.00 | 0.00 | 0.00 | 55 | 1012.9 |
| 20260504010921 | 10 | 164 | 1.6 | 3.2 | 0.00 | 0.00 | 0.00 | 56 | 1012.8 |
| 20260504010816 | 10 | 0.0 | 1.6 | 0.00 | 0.00 | 0.00 | 54 | 1013.1 | |
| 20260504010728 | 10 | 148 | 0.0 | 1.6 | 0.00 | 0.00 | 0.00 | 54 | 1012.7 |
| 20260504010624 | 10 | 171 | 1.6 | 3.2 | 0.00 | 0.00 | 0.00 | 53 | 1012.8 |
| 20260504010519 | 10 | 145 | 0.0 | 1.6 | 0.00 | 0.00 | 0.00 | 52 | 1012.7 |
| 20260504010431 | 10 | 0.0 | 1.6 | 0.00 | 0.00 | 0.00 | 52 | 1012.7 | |
| 20260504010326 | 10 | 0.0 | 1.6 | 0.00 | 0.00 | 0.00 | 51 | 1012.9 | |
| 20260504010222 | 10 | 157 | 1.6 | 3.2 | 0.00 | 0.00 | 0.00 | 51 | 1012.7 |
| 20260504010117 | 10 | 156 | 0.0 | 1.6 | 0.00 | 0.00 | 0.00 | 51 | 1012.7 |
| 20260504010029 | 10 | 0.0 | 1.6 | 0.00 | 0.00 | 0.00 | 51 | 1012.6 | |
| 20260504005925 | 10 | 65 | 0.0 | 3.2 | 0.00 | 0.00 | 0.00 | 51 | 1012.6 |
| 20260504005820 | 10 | 150 | 1.6 | 3.2 | 0.00 | 0.00 | 0.00 | 50 | 1012.8 |
| 20260504005716 | 10 | 143 | 0.0 | 3.2 | 0.00 | 0.00 | 0.00 | 50 | 1012.6 |
| 20260504005627 | 10 | 138 | 0.0 | 3.2 | 0.00 | 0.00 | 0.00 | 50 | 1012.7 |
| 20260504005523 | 10 | 64 | 0.0 | 1.6 | 0.00 | 0.00 | 0.00 | 50 | 1012.7 |
| 20260504005419 | 10 | 0.0 | 1.6 | 0.00 | 0.00 | 0.00 | 50 | 1012.6 | |
| 20260504005330 | 11 | 138 | 0.0 | 3.2 | 0.00 | 0.00 | 0.00 | 50 | 1012.7 |
| 20260504005246 | 11 | 141 | 1.6 | 3.2 | 0.00 | 0.00 | 0.00 | 49 | 1012.5 |
| 20260504005122 | 11 | 172 | 0.0 | 3.2 | 0.00 | 0.00 | 0.00 | 49 | 1012.7 |
| 20260504005017 | 11 | 0.0 | 1.6 | 0.00 | 0.00 | 0.00 | 49 | 1012.5 | |
| 20260504004929 | 11 | 127 | 1.6 | 3.2 | 0.00 | 0.00 | 0.00 | 49 | 1012.7 |
| 20260504004844 | 11 | 77 | 1.6 | 3.2 | 0.00 | 0.00 | 0.00 | 49 | 1012.5 |
| 20260504004720 | 11 | 120 | 3.2 | 3.2 | 0.00 | 0.00 | 0.00 | 49 | 1012.5 |
| 20260504004615 | 11 | 124 | 1.6 | 3.2 | 0.00 | 0.00 | 0.00 | 49 | 1012.7 |
| 20260504004527 | 11 | 131 | 1.6 | 3.2 | 0.00 | 0.00 | 0.00 | 49 | 1012.5 |
| 20260504004423 | 11 | 112 | 3.2 | 3.2 | 0.00 | 0.00 | 0.00 | 49 | 1012.6 |
| 20260504004338 | 11 | 129 | 1.6 | 3.2 | 0.00 | 0.00 | 0.00 | 49 | 1012.6 |
| 20260504004230 | 11 | 125 | 1.6 | 3.2 | 0.00 | 0.00 | 0.00 | 48 | 1012.5 |
| 20260504004126 | 11 | 130 | 1.6 | 3.2 | 0.00 | 0.00 | 0.00 | 48 | 1012.6 |
| 20260504004041 | 11 | 124 | 1.6 | 3.2 | 0.00 | 0.00 | 0.00 | 48 | 1012.5 |
| 20260504003917 | 11 | 113 | 1.6 | 1.6 | 0.00 | 0.00 | 0.00 | 47 | 1012.5 |
| 20260504003849 | 11 | 144 | 1.6 | 3.2 | 0.00 | 0.00 | 0.00 | 48 | 1012.5 |
| 20260504003724 | 11 | 164 | 1.6 | 3.2 | 0.00 | 0.00 | 0.00 | 47 | 1012.3 |
| 20260504003620 | 11 | 0.0 | 1.6 | 0.00 | 0.00 | 0.00 | 45 | 1012.6 | |
| 20260504003515 | 11 | 146 | 1.6 | 3.2 | 0.00 | 0.00 | 0.00 | 45 | 1012.5 |
| 20260504003427 | 12 | 150 | 1.6 | 3.2 | 0.00 | 0.00 | 0.00 | 45 | 1012.4 |
| 20260504003343 | 12 | 133 | 1.6 | 3.2 | 0.00 | 0.00 | 0.00 | 45 | 1012.5 |
| 20260504003218 | 12 | 0.0 | 1.6 | 0.00 | 0.00 | 0.00 | 44 | 1012.4 | |
| 20260504003210 | 12 | 151 | 1.6 | 3.2 | 0.00 | 0.00 | 0.00 | 44 | 1012.3 |
| 20260504003025 | 12 | 159 | 1.6 | 3.2 | 0.00 | 0.00 | 0.00 | 44 | 1012.4 |
| 20260504002921 | 12 | 123 | 1.6 | 3.2 | 0.00 | 0.00 | 0.00 | 43 | 1012.3 |
| 20260504002837 | 12 | 120 | 1.6 | 3.2 | 0.00 | 0.00 | 0.00 | 42 | 1012.3 |
| 20260504002728 | 12 | 91 | 0.0 | 1.6 | 0.00 | 0.00 | 0.00 | 38 | 1012.1 |
| 20260504002624 | 12 | 172 | 1.6 | 3.2 | 0.00 | 0.00 | 0.00 | 38 | 1012.3 |
| 20260504002519 | 12 | 164 | 1.6 | 1.6 | 0.00 | 0.00 | 0.00 | 38 | 1012.3 |
| 20260504002415 | 12 | 142 | 0.0 | 3.2 | 0.00 | 0.00 | 0.00 | 38 | 1012.2 |
| 20260504002327 | 12 | 191 | 1.6 | 3.2 | 0.00 | 0.00 | 0.00 | 38 | 1012.3 |
| 20260504002222 | 12 | 141 | 1.6 | 3.2 | 0.00 | 0.00 | 0.00 | 38 | 1012.2 |
| 20260504002118 | 12 | 172 | 0.0 | 1.6 | 0.00 | 0.00 | 0.00 | 38 | 1012.2 |
| 20260504002030 | 12 | 187 | 1.6 | 3.2 | 0.00 | 0.00 | 0.00 | 38 | 1012.1 |
| 20260504001945 | 12 | 0.0 | 1.6 | 0.00 | 0.00 | 0.00 | 38 | 1011.9 | |
| 20260504001820 | 12 | 0.0 | 1.6 | 0.00 | 0.00 | 0.00 | 38 | 1012.1 | |
| 20260504001716 | 12 | 199 | 1.6 | 3.2 | 0.00 | 0.00 | 0.00 | 38 | 1012.2 |
| 20260504001627 | 12 | 172 | 0.0 | 1.6 | 0.00 | 0.00 | 0.00 | 38 | 1012.0 |
| 20260504001522 | 12 | 196 | 3.2 | 4.8 | 0.00 | 0.00 | 0.00 | 38 | 1012.2 |
| 20260504001418 | 12 | 169 | 1.6 | 3.2 | 0.00 | 0.00 | 0.00 | 39 | 1012.2 |
| 20260504001349 | 12 | 196 | 1.6 | 3.2 | 0.00 | 0.00 | 0.00 | 38 | 1012.1 |
| 20260504001225 | 12 | 185 | 1.6 | 3.2 | 0.00 | 0.00 | 0.00 | 38 | 1012.0 |
| 20260504001121 | 12 | 0.0 | 1.6 | 0.00 | 0.00 | 0.00 | 39 | 1012.0 | |
| 20260504001036 | 12 | 141 | 0.0 | 3.2 | 0.00 | 0.00 | 0.00 | 39 | 1011.9 |
| 20260504000927 | 12 | 75 | 0.0 | 3.2 | 0.00 | 0.00 | 0.00 | 40 | 1011.9 |
| 20260504000823 | 12 | 0.0 | 3.2 | 0.00 | 0.00 | 0.00 | 41 | 1012.0 | |
| 20260504000718 | 12 | 130 | 3.2 | 3.2 | 0.00 | 0.00 | 0.00 | 40 | 1011.9 |
| 20260504000650 | 12 | 162 | 1.6 | 3.2 | 0.00 | 0.00 | 0.00 | 39 | 1012.0 |
| 20260504000526 | 12 | 152 | 3.2 | 3.2 | 0.00 | 0.00 | 0.00 | 41 | 1011.9 |
| 20260504000423 | 12 | 159 | 1.6 | 3.2 | 0.00 | 0.00 | 0.00 | 41 | 1011.8 |
| 20260504000317 | 12 | 144 | 1.6 | 3.2 | 0.00 | 0.00 | 0.00 | 41 | 1011.9 |
| 20260504000228 | 13 | 160 | 0.0 | 3.2 | 0.00 | 0.00 | 0.00 | 40 | 1012.0 |
| 20260504000124 | 13 | 138 | 1.6 | 3.2 | 0.00 | 0.00 | 0.00 | 40 | 1011.8 |
| 20260504000019 | 13 | 50 | 0.0 | 3.2 | 0.00 | 0.00 | 0.00 | 39 | 1011.9 |
| 20260503235915 | 13 | 108 | 1.6 | 3.2 | 0.00 | 0.00 | 0.00 | 39 | 1011.9 |
| 20260503235846 | 13 | 119 | 1.6 | 3.2 | 0.00 | 0.00 | 0.00 | 40 | 1011.7 |
| 20260503235722 | 13 | 133 | 1.6 | 3.2 | 0.00 | 0.00 | 0.00 | 40 | 1011.9 |
| 20260503235618 | 13 | 138 | 1.6 | 3.2 | 0.00 | 0.00 | 0.00 | 39 | 1011.9 |
| 20260503235610 | 13 | 139 | 1.6 | 4.8 | 0.00 | 0.00 | 0.00 | 38 | 1011.8 |
| 20260503235425 | 13 | 155 | 0.0 | 1.6 | 0.00 | 0.00 | 0.00 | 36 | 1011.8 |
| 20260503235321 | 13 | 0.0 | 0.0 | 0.00 | 0.00 | 0.00 | 36 | 1011.8 | |
| 20260503235216 | 13 | 173 | 0.0 | 3.2 | 0.00 | 0.00 | 0.00 | 35 | 1011.9 |
| 20260503235128 | 13 | 0.0 | 1.6 | 0.00 | 0.00 | 0.00 | 35 | 1011.8 | |
| 20260503235024 | 13 | 139 | 1.6 | 3.2 | 0.00 | 0.00 | 0.00 | 37 | 1011.7 |
| 20260503234919 | 13 | 141 | 1.6 | 3.2 | 0.00 | 0.00 | 0.00 | 36 | 1011.6 |
| 20260503234851 | 14 | 160 | 1.6 | 3.2 | 0.00 | 0.00 | 0.00 | 34 | 1011.6 |
| 20260503234726 | 14 | 214 | 3.2 | 4.8 | 0.00 | 0.00 | 0.00 | 33 | 1011.6 |
| 20260503234622 | 14 | 207 | 3.2 | 3.2 | 0.00 | 0.00 | 0.00 | 34 | 1011.8 |
| 20260503234538 | 14 | 205 | 1.6 | 4.8 | 0.00 | 0.00 | 0.00 | 34 | 1011.6 |
| 20260503234429 | 14 | 187 | 3.2 | 4.8 | 0.00 | 0.00 | 0.00 | 34 | 1011.8 |
| 20260503234405 | 14 | 179 | 3.2 | 4.8 | 0.00 | 0.00 | 0.00 | 34 | 1011.7 |
| 20260503234241 | 14 | 189 | 4.8 | 6.4 | 0.00 | 0.00 | 0.00 | 33 | 1011.8 |
| 20260503234116 | 14 | 199 | 0.0 | 4.8 | 0.00 | 0.00 | 0.00 | 33 | 1011.7 |
| 20260503234028 | 14 | 202 | 3.2 | 4.8 | 0.00 | 0.00 | 0.00 | 33 | 1011.7 |
| 20260503233923 | 14 | 202 | 3.2 | 4.8 | 0.00 | 0.00 | 0.00 | 34 | 1011.6 |
| 20260503233819 | 14 | 0.0 | 3.2 | 0.00 | 0.00 | 0.00 | 33 | 1011.7 | |
| 20260503233731 | 14 | 171 | 1.6 | 3.2 | 0.00 | 0.00 | 0.00 | 34 | 1011.8 |
| 20260503233726 | 14 | 188 | 1.6 | 3.2 | 0.00 | 0.00 | 0.00 | 33 | 1011.6 |
| 20260503233522 | 14 | 137 | 1.6 | 3.2 | 0.00 | 0.00 | 0.00 | 33 | 1011.6 |
| 20260503233417 | 14 | 172 | 1.6 | 3.2 | 0.00 | 0.00 | 0.00 | 33 | 1011.5 |
| 20260503233329 | 14 | 182 | 1.6 | 3.2 | 0.00 | 0.00 | 0.00 | 33 | 1011.5 |
| 20260503233224 | 14 | 191 | 4.8 | 6.4 | 0.00 | 0.00 | 0.00 | 32 | 1011.7 |
| 20260503233140 | 14 | 194 | 3.2 | 4.8 | 0.00 | 0.00 | 0.00 | 32 | 1011.6 |
| 20260503233016 | 14 | 185 | 1.6 | 3.2 | 0.00 | 0.00 | 0.00 | 33 | 1011.5 |
| 20260503232927 | 14 | 199 | 1.6 | 4.8 | 0.00 | 0.00 | 0.00 | 33 | 1011.5 |
| 20260503232823 | 14 | 190 | 3.2 | 8.0 | 0.00 | 0.00 | 0.00 | 32 | 1011.3 |
| 20260503232739 | 14 | 179 | 4.8 | 6.4 | 0.00 | 0.00 | 0.00 | 32 | 1011.4 |
| 20260503232630 | 14 | 172 | 1.6 | 3.2 | 0.00 | 0.00 | 0.00 | 32 | 1011.5 |
| 20260503232526 | 14 | 155 | 3.2 | 4.8 | 0.00 | 0.00 | 0.00 | 33 | 1011.6 |
| 20260503232421 | 14 | 62 | 1.6 | 3.2 | 0.00 | 0.00 | 0.00 | 33 | 1011.4 |
| 20260503232357 | 14 | 212 | 1.6 | 6.4 | 0.00 | 0.00 | 0.00 | 33 | 1011.6 |
| 20260503232229 | 14 | 198 | 3.2 | 4.8 | 0.00 | 0.00 | 0.00 | 33 | 1011.6 |
| 20260503232124 | 14 | 154 | 1.6 | 3.2 | 0.00 | 0.00 | 0.00 | 32 | 1011.7 |
| 20260503232020 | 14 | 204 | 1.6 | 4.8 | 0.00 | 0.00 | 0.00 | 33 | 1011.6 |
| 20260503231915 | 14 | 179 | 3.2 | 4.8 | 0.00 | 0.00 | 0.00 | 32 | 1011.7 |
| 20260503231847 | 14 | 207 | 4.8 | 8.0 | 0.00 | 0.00 | 0.00 | 32 | 1011.6 |
| 20260503231723 | 14 | 172 | 1.6 | 3.2 | 0.00 | 0.00 | 0.00 | 33 | 1011.5 |
| 20260503231618 | 14 | 179 | 1.6 | 3.2 | 0.00 | 0.00 | 0.00 | 32 | 1011.4 |
| 20260503231550 | 14 | 172 | 3.2 | 4.8 | 0.00 | 0.00 | 0.00 | 32 | 1011.5 |
| 20260503231425 | 14 | 184 | 3.2 | 3.2 | 0.00 | 0.00 | 0.00 | 33 | 1011.6 |
| 20260503231321 | 14 | 212 | 1.6 | 6.4 | 0.00 | 0.00 | 0.00 | 33 | 1011.4 |
| 20260503231216 | 14 | 235 | 3.2 | 6.4 | 0.00 | 0.00 | 0.00 | 33 | 1011.4 |
| 20260503231128 | 15 | 131 | 3.2 | 4.8 | 0.00 | 0.00 | 0.00 | 32 | 1011.6 |
| 20260503231023 | 15 | 82 | 1.6 | 3.2 | 0.00 | 0.00 | 0.00 | 33 | 1011.6 |
| 20260503230919 | 15 | 183 | 1.6 | 3.2 | 0.00 | 0.00 | 0.00 | 33 | 1011.4 |
| 20260503230831 | 15 | 182 | 3.2 | 6.4 | 0.00 | 0.00 | 0.00 | 32 | 1011.5 |
| 20260503230726 | 15 | 196 | 6.4 | 9.7 | 0.00 | 0.00 | 0.00 | 31 | 1011.5 |
| 20260503230622 | 15 | 194 | 4.8 | 6.4 | 0.00 | 0.00 | 0.00 | 31 | 1011.3 |
| 20260503230518 | 15 | 205 | 4.8 | 4.8 | 0.00 | 0.00 | 0.00 | 32 | 1011.4 |
| 20260503230429 | 15 | 184 | 4.8 | 6.4 | 0.00 | 0.00 | 0.00 | 31 | 1011.4 |
| 20260503230325 | 15 | 219 | 3.2 | 4.8 | 0.00 | 0.00 | 0.00 | 31 | 1011.3 |
| 20260503230221 | 15 | 200 | 3.2 | 6.4 | 0.00 | 0.00 | 0.00 | 31 | 1011.6 |
| 20260503230116 | 15 | 191 | 4.8 | 4.8 | 0.00 | 0.00 | 0.00 | 31 | 1011.5 |
| 20260503230028 | 15 | 212 | 4.8 | 6.4 | 0.00 | 0.00 | 0.00 | 31 | 1011.5 |
| 20260503225923 | 15 | 193 | 6.4 | 9.7 | 0.00 | 0.00 | 0.00 | 31 | 1011.4 |
| 20260503225819 | 15 | 214 | 6.4 | 8.0 | 0.00 | 0.00 | 0.00 | 31 | 1011.4 |
| 20260503225731 | 15 | 204 | 4.8 | 9.7 | 0.00 | 0.00 | 0.00 | 32 | 1011.2 |
| 20260503225626 | 15 | 220 | 3.2 | 4.8 | 0.00 | 0.00 | 0.00 | 32 | 1011.4 |
| 20260503225522 | 15 | 203 | 3.2 | 8.0 | 0.00 | 0.00 | 0.00 | 31 | 1011.6 |
| 20260503225417 | 15 | 201 | 8.0 | 11.3 | 0.00 | 0.00 | 0.00 | 30 | 1011.3 |
| 20260503225329 | 15 | 214 | 6.4 | 9.7 | 0.00 | 0.00 | 0.00 | 31 | 1011.5 |
| 20260503225225 | 15 | 203 | 8.0 | 16.1 | 0.00 | 0.00 | 0.00 | 31 | 1011.5 |
| 20260503225120 | 15 | 238 | 3.2 | 4.8 | 0.00 | 0.00 | 0.00 | 31 | 1011.3 |
| 20260503225016 | 15 | 193 | 4.8 | 9.7 | 0.00 | 0.00 | 0.00 | 31 | 1011.4 |
| 20260503224928 | 15 | 219 | 6.4 | 11.3 | 0.00 | 0.00 | 0.00 | 30 | 1011.3 |
| 20260503224843 | 15 | 190 | 6.4 | 12.9 | 0.00 | 0.00 | 0.00 | 30 | 1011.3 |
| 20260503224719 | 15 | 212 | 8.0 | 9.7 | 0.00 | 0.00 | 0.00 | 29 | 1011.3 |
| 20260503224630 | 15 | 201 | 4.8 | 9.7 | 0.00 | 0.00 | 0.00 | 29 | 1011.3 |
| 20260503224526 | 15 | 194 | 4.8 | 6.4 | 0.00 | 0.00 | 0.00 | 30 | 1011.2 |
| 20260503224441 | 15 | 10 | 1.6 | 4.8 | 0.00 | 0.00 | 0.00 | 30 | 1011.4 |
| 20260503224317 | 15 | 192 | 3.2 | 6.4 | 0.00 | 0.00 | 0.00 | 30 | 1011.3 |
| 20260503224229 | 15 | 128 | 1.6 | 3.2 | 0.00 | 0.00 | 0.00 | 30 | 1011.0 |
| 20260503224124 | 15 | 263 | 1.6 | 3.2 | 0.00 | 0.00 | 0.00 | 30 | 1011.2 |
| 20260503224020 | 15 | 193 | 1.6 | 4.8 | 0.00 | 0.00 | 0.00 | 29 | 1011.2 |
| 20260503223915 | 15 | 67 | 1.6 | 3.2 | 0.00 | 0.00 | 0.00 | 29 | 1011.3 |
| 20260503223847 | 15 | 8 | 4.8 | 9.7 | 0.00 | 0.00 | 0.00 | 28 | 1011.2 |
| 20260503223803 | 15 | 327 | 3.2 | 9.7 | 0.00 | 0.00 | 0.00 | 29 | 1011.2 |
| 20260503223618 | 15 | 221 | 3.2 | 6.4 | 0.00 | 0.00 | 0.00 | 29 | 1011.2 |
| 20260503223530 | 15 | 182 | 3.2 | 6.4 | 0.00 | 0.00 | 0.00 | 30 | 1011.1 |
| 20260503223426 | 15 | 180 | 3.2 | 4.8 | 0.00 | 0.00 | 0.00 | 29 | 1011.4 |
| 20260503223321 | 15 | 164 | 3.2 | 6.4 | 0.00 | 0.00 | 0.00 | 30 | 1011.3 |
| 20260503223217 | 15 | 224 | 4.8 | 6.4 | 0.00 | 0.00 | 0.00 | 30 | 1011.2 |
| 20260503223149 | 15 | 219 | 3.2 | 3.2 | 0.00 | 0.00 | 0.00 | 29 | 1011.0 |
| 20260503223024 | 15 | 28 | 3.2 | 4.8 | 0.00 | 0.00 | 0.00 | 30 | 1011.1 |
| 20260503222920 | 15 | 203 | 4.8 | 8.0 | 0.00 | 0.00 | 0.00 | 29 | 1011.3 |
| 20260503222815 | 15 | 183 | 4.8 | 8.0 | 0.00 | 0.00 | 0.00 | 30 | 1011.2 |
| 20260503222727 | 15 | 189 | 4.8 | 6.4 | 0.00 | 0.00 | 0.00 | 30 | 1011.2 |
| 20260503222622 | 15 | 164 | 3.2 | 9.7 | 0.00 | 0.00 | 0.00 | 30 | 1011.3 |
| 20260503222518 | 15 | 359 | 8.0 | 9.7 | 0.00 | 0.00 | 0.00 | 29 | 1011.0 |
| 20260503222430 | 15 | 340 | 3.2 | 3.2 | 0.00 | 0.00 | 0.00 | 29 | 1011.2 |
| 20260503222325 | 15 | 166 | 3.2 | 8.0 | 0.00 | 0.00 | 0.00 | 29 | 1011.2 |
| 20260503222221 | 15 | 324 | 6.4 | 9.7 | 0.00 | 0.00 | 0.00 | 28 | 1011.3 |
| 20260503222117 | 15 | 305 | 3.2 | 8.0 | 0.00 | 0.00 | 0.00 | 29 | 1011.2 |
| 20260503222048 | 15 | 350 | 6.4 | 8.0 | 0.00 | 0.00 | 0.00 | 29 | 1011.1 |
| 20260503221944 | 15 | 43 | 3.2 | 4.8 | 0.00 | 0.00 | 0.00 | 29 | 1011.1 |
| 20260503221819 | 15 | 311 | 1.6 | 8.0 | 0.00 | 0.00 | 0.00 | 28 | 1011.1 |
| 20260503221715 | 15 | 218 | 3.2 | 6.4 | 0.00 | 0.00 | 0.00 | 29 | 1011.2 |
| 20260503221627 | 15 | 323 | 6.4 | 9.7 | 0.00 | 0.00 | 0.00 | 28 | 1011.2 |
| 20260503221542 | 15 | 345 | 3.2 | 8.0 | 0.00 | 0.00 | 0.00 | 29 | 1011.0 |
| 20260503221518 | 15 | 351 | 3.2 | 6.4 | 0.00 | 0.00 | 0.00 | 29 | 1011.1 |
| 20260503221330 | 15 | 201 | 1.6 | 4.8 | 0.00 | 0.00 | 0.00 | 29 | 1011.1 |
| 20260503221225 | 15 | 14 | 1.6 | 4.8 | 0.00 | 0.00 | 0.00 | 28 | 1011.2 |
| 20260503221121 | 15 | 342 | 1.6 | 3.2 | 0.00 | 0.00 | 0.00 | 28 | 1010.9 |
| 20260503221016 | 15 | 52 | 4.8 | 6.4 | 0.00 | 0.00 | 0.00 | 27 | 1011.1 |
| 20260503220928 | 15 | 20 | 4.8 | 9.7 | 0.00 | 0.00 | 0.00 | 28 | 1011.1 |
| 20260503220824 | 15 | 1 | 3.2 | 6.4 | 0.00 | 0.00 | 0.00 | 29 | 1011.1 |
| 20260503220719 | 15 | 341 | 4.8 | 8.0 | 0.00 | 0.00 | 0.00 | 29 | 1011.1 |
| 20260503220651 | 15 | 9 | 3.2 | 6.4 | 0.00 | 0.00 | 0.00 | 29 | 1011.1 |
| 20260503220527 | 15 | 40 | 3.2 | 6.4 | 0.00 | 0.00 | 0.00 | 29 | 1011.1 |
| 20260503220422 | 15 | 326 | 6.4 | 11.3 | 0.00 | 0.00 | 0.00 | 28 | 1011.2 |
| 20260503220318 | 15 | 12 | 6.4 | 12.9 | 0.00 | 0.00 | 0.00 | 28 | 1011.1 |
| 20260503220229 | 15 | 348 | 8.0 | 12.9 | 0.00 | 0.00 | 0.00 | 28 | 1011.0 |
| 20260503220125 | 15 | 283 | 6.4 | 9.7 | 0.00 | 0.00 | 0.00 | 28 | 1011.3 |
| 20260503220020 | 15 | 303 | 4.8 | 8.0 | 0.00 | 0.00 | 0.00 | 28 | 1011.1 |
| 20260503215916 | 15 | 249 | 6.4 | 11.3 | 0.00 | 0.00 | 0.00 | 29 | 1011.2 |
| 20260503215828 | 15 | 117 | 1.6 | 3.2 | 0.00 | 0.00 | 0.00 | 29 | 1011.4 |
| 20260503215723 | 15 | 179 | 3.2 | 6.4 | 0.00 | 0.00 | 0.00 | 28 | 1011.2 |
| 20260503215619 | 15 | 264 | 1.6 | 6.4 | 0.00 | 0.00 | 0.00 | 29 | 1011.3 |
| 20260503215530 | 15 | 336 | 4.8 | 6.4 | 0.00 | 0.00 | 0.00 | 29 | 1011.4 |
| 20260503215426 | 15 | 65 | 3.2 | 4.8 | 0.00 | 0.00 | 0.00 | 29 | 1011.4 |
| 20260503215342 | 15 | 299 | 4.8 | 9.7 | 0.00 | 0.00 | 0.00 | 29 | 1011.3 |
| 20260503215217 | 15 | 333 | 4.8 | 11.3 | 0.00 | 0.00 | 0.00 | 27 | 1011.3 |
| 20260503215129 | 15 | 337 | 4.8 | 6.4 | 0.00 | 0.00 | 0.00 | 28 | 1011.2 |
| 20260503215104 | 15 | 321 | 8.0 | 14.5 | 0.00 | 0.00 | 0.00 | 28 | 1011.3 |
| 20260503214920 | 15 | 21 | 9.7 | 16.1 | 0.00 | 0.00 | 0.00 | 28 | 1011.6 |
| 20260503214816 | 15 | 8 | 6.4 | 12.9 | 0.00 | 0.00 | 0.00 | 28 | 1011.4 |
| 20260503214727 | 15 | 328 | 11.3 | 20.9 | 0.00 | 0.00 | 0.00 | 28 | 1011.1 |
| 20260503214623 | 15 | 333 | 9.7 | 16.1 | 0.00 | 0.00 | 0.00 | 28 | 1011.2 |
| 20260503214519 | 16 | 327 | 6.4 | 8.0 | 0.00 | 0.00 | 0.00 | 28 | 1011.2 |
| 20260503214430 | 16 | 351 | 6.4 | 12.9 | 0.00 | 0.00 | 0.00 | 28 | 1011.1 |
| 20260503214326 | 16 | 5 | 4.8 | 6.4 | 0.00 | 0.00 | 0.00 | 29 | 1011.2 |
| 20260503214221 | 15 | 124 | 3.2 | 4.8 | 0.00 | 0.00 | 0.00 | 29 | 1011.1 |
| 20260503214117 | 15 | 34 | 3.2 | 4.8 | 0.00 | 0.00 | 0.00 | 29 | 1011.1 |
| 20260503214029 | 15 | 330 | 4.8 | 8.0 | 0.00 | 0.00 | 0.00 | 29 | 1011.2 |
| 20260503213924 | 15 | 359 | 3.2 | 8.0 | 0.00 | 0.00 | 0.00 | 29 | 1011.3 |
| 20260503213840 | 15 | 88 | 0.0 | 6.4 | 0.00 | 0.00 | 0.00 | 29 | 1011.1 |
| 20260503213735 | 15 | 214 | 3.2 | 9.7 | 0.00 | 0.00 | 0.00 | 30 | 1011.2 |
| 20260503213627 | 15 | 330 | 4.8 | 8.0 | 0.00 | 0.00 | 0.00 | 30 | 1011.0 |
| 20260503213522 | 15 | 359 | 6.4 | 9.7 | 0.00 | 0.00 | 0.00 | 29 | 1011.2 |
| 20260503213418 | 15 | 297 | 8.0 | 12.9 | 0.00 | 0.00 | 0.00 | 28 | 1011.0 |
| 20260503213330 | 15 | 28 | 8.0 | 9.7 | 0.00 | 0.00 | 0.00 | 28 | 1011.4 |
| 20260503213225 | 15 | 318 | 4.8 | 9.7 | 0.00 | 0.00 | 0.00 | 28 | 1011.2 |
| 20260503213121 | 15 | 137 | 3.2 | 6.4 | 0.00 | 0.00 | 0.00 | 28 | 1011.2 |
| 20260503213036 | 15 | 281 | 4.8 | 6.4 | 0.00 | 0.00 | 0.00 | 29 | 1011.3 |
| 20260503212928 | 15 | 349 | 6.4 | 12.9 | 0.00 | 0.00 | 0.00 | 29 | 1011.1 |
| 20260503212824 | 15 | 357 | 4.8 | 14.5 | 0.00 | 0.00 | 0.00 | 28 | 1011.3 |
| 20260503212740 | 15 | 336 | 6.4 | 20.9 | 0.00 | 0.00 | 0.00 | 28 | 1011.5 |
| 20260503212615 | 15 | 337 | 12.9 | 20.9 | 0.00 | 0.00 | 0.00 | 28 | 1011.4 |
| 20260503212527 | 15 | 307 | 6.4 | 11.3 | 0.00 | 0.00 | 0.00 | 29 | 1011.0 |
| 20260503212422 | 15 | 268 | 4.8 | 8.0 | 0.00 | 0.00 | 0.00 | 29 | 1011.2 |
| 20260503212318 | 15 | 87 | 3.2 | 8.0 | 0.00 | 0.00 | 0.00 | 29 | 1011.3 |
| 20260503212229 | 15 | 318 | 4.8 | 9.7 | 0.00 | 0.00 | 0.00 | 28 | 1011.2 |
| 20260503212125 | 15 | 333 | 9.7 | 14.5 | 0.00 | 0.00 | 0.00 | 28 | 1011.4 |
| 20260503212021 | 15 | 332 | 4.8 | 8.0 | 0.00 | 0.00 | 0.00 | 28 | 1011.0 |
| 20260503211916 | 15 | 321 | 6.4 | 9.7 | 0.00 | 0.00 | 0.00 | 29 | 1011.2 |
| 20260503211828 | 15 | 319 | 6.4 | 14.5 | 0.00 | 0.00 | 0.00 | 28 | 1011.2 |
| 20260503211724 | 15 | 347 | 8.0 | 17.7 | 0.00 | 0.00 | 0.00 | 28 | 1011.2 |
| 20260503211619 | 15 | 335 | 6.4 | 8.0 | 0.00 | 0.00 | 0.00 | 29 | 1011.2 |
| 20260503211531 | 15 | 359 | 9.7 | 16.1 | 0.00 | 0.00 | 0.00 | 29 | 1011.2 |
| 20260503211447 | 15 | 316 | 4.8 | 9.7 | 0.00 | 0.00 | 0.00 | 29 | 1011.1 |
| 20260503211322 | 15 | 203 | 3.2 | 4.8 | 0.00 | 0.00 | 0.00 | 30 | 1011.1 |
| 20260503211218 | 15 | 195 | 4.8 | 11.3 | 0.00 | 0.00 | 0.00 | 29 | 1011.1 |
| 20260503211150 | 15 | 348 | 11.3 | 20.9 | 0.00 | 0.00 | 0.00 | 28 | 1011.3 |
| 20260503211025 | 15 | 37 | 4.8 | 8.0 | 0.00 | 0.00 | 0.00 | 29 | 1011.2 |
| 20260503210921 | 15 | 314 | 11.3 | 19.3 | 0.00 | 0.00 | 0.00 | 28 | 1011.1 |
| 20260503210816 | 15 | 334 | 6.4 | 12.9 | 0.00 | 0.00 | 0.00 | 28 | 1011.3 |
| 20260503210728 | 15 | 336 | 9.7 | 14.5 | 0.00 | 0.00 | 0.00 | 29 | 1011.2 |
| 20260503210623 | 15 | 343 | 6.4 | 11.3 | 0.00 | 0.00 | 0.00 | 28 | 1011.2 |
| 20260503210519 | 15 | 337 | 9.7 | 16.1 | 0.00 | 0.00 | 0.00 | 28 | 1011.2 |
| 20260503210430 | 15 | 332 | 8.0 | 16.1 | 0.00 | 0.00 | 0.00 | 29 | 1011.2 |
| 20260503210346 | 15 | 335 | 9.7 | 17.7 | 0.00 | 0.00 | 0.00 | 28 | 1011.3 |
| 20260503210221 | 15 | 257 | 6.4 | 11.3 | 0.00 | 0.00 | 0.00 | 29 | 1011.2 |
| 20260503210117 | 15 | 32 | 8.0 | 9.7 | 0.00 | 0.00 | 0.00 | 29 | 1011.3 |
| 20260503210029 | 15 | 329 | 8.0 | 11.3 | 0.00 | 0.00 | 0.00 | 28 | 1011.3 |
| 20260503205924 | 15 | 273 | 4.8 | 8.0 | 0.00 | 0.00 | 0.00 | 29 | 1011.3 |
| 20260503205820 | 15 | 324 | 8.0 | 11.3 | 0.00 | 0.00 | 0.00 | 28 | 1011.3 |
| 20260503205715 | 15 | 318 | 9.7 | 20.9 | 0.00 | 0.00 | 0.00 | 28 | 1011.2 |
| 20260503205627 | 15 | 14 | 6.4 | 14.5 | 0.00 | 0.00 | 0.00 | 28 | 1011.2 |
| 20260503205523 | 15 | 328 | 9.7 | 19.3 | 0.00 | 0.00 | 0.00 | 28 | 1011.2 |
| 20260503205518 | 15 | 321 | 6.4 | 12.9 | 0.00 | 0.00 | 0.00 | 28 | 1010.9 |
| 20260503205330 | 15 | 357 | 8.0 | 19.3 | 0.00 | 0.00 | 0.00 | 28 | 1011.2 |
| 20260503205225 | 15 | 15 | 8.0 | 14.5 | 0.00 | 0.00 | 0.00 | 29 | 1011.1 |
| 20260503205121 | 15 | 75 | 4.8 | 8.0 | 0.00 | 0.00 | 0.00 | 29 | 1011.1 |
| 20260503205016 | 15 | 332 | 8.0 | 22.5 | 0.00 | 0.00 | 0.00 | 29 | 1011.2 |
| 20260503204928 | 15 | 326 | 14.5 | 27.4 | 0.00 | 0.00 | 0.00 | 28 | 1011.1 |
| 20260503204824 | 15 | 305 | 6.4 | 20.9 | 0.00 | 0.00 | 0.00 | 29 | 1011.1 |
| 20260503204720 | 15 | 204 | 3.2 | 4.8 | 0.00 | 0.00 | 0.00 | 30 | 1010.9 |
| 20260503204615 | 15 | 358 | 4.8 | 8.0 | 0.00 | 0.00 | 0.00 | 30 | 1010.9 |
| 20260503204547 | 15 | 147 | 1.6 | 4.8 | 0.00 | 0.00 | 0.00 | 30 | 1010.8 |
| 20260503204423 | 15 | 118 | 3.2 | 6.4 | 0.00 | 0.00 | 0.00 | 30 | 1011.0 |
| 20260503204318 | 15 | 41 | 3.2 | 3.2 | 0.00 | 0.00 | 0.00 | 30 | 1011.1 |
| 20260503204230 | 15 | 227 | 4.8 | 11.3 | 0.00 | 0.00 | 0.00 | 30 | 1011.2 |
| 20260503204145 | 15 | 351 | 6.4 | 12.9 | 0.00 | 0.00 | 0.00 | 29 | 1011.0 |
| 20260503204021 | 15 | 9 | 8.0 | 11.3 | 0.00 | 0.00 | 0.00 | 29 | 1011.2 |
| 20260503203917 | 15 | 2 | 3.2 | 8.0 | 0.00 | 0.00 | 0.00 | 29 | 1011.1 |
| 20260503203828 | 15 | 355 | 4.8 | 8.0 | 0.00 | 0.00 | 0.00 | 29 | 1011.2 |
| 20260503203724 | 15 | 296 | 9.7 | 20.9 | 0.00 | 0.00 | 0.00 | 29 | 1011.3 |
| 20260503203620 | 15 | 6 | 6.4 | 9.7 | 0.00 | 0.00 | 0.00 | 29 | 1011.0 |
| 20260503203535 | 15 | 348 | 8.0 | 16.1 | 0.00 | 0.00 | 0.00 | 29 | 1011.2 |
| 20260503203427 | 15 | 330 | 9.7 | 17.7 | 0.00 | 0.00 | 0.00 | 29 | 1011.1 |
| 20260503203322 | 15 | 345 | 8.0 | 17.7 | 0.00 | 0.00 | 0.00 | 29 | 1011.2 |
| 20260503203238 | 15 | 320 | 8.0 | 19.3 | 0.00 | 0.00 | 0.00 | 29 | 1011.0 |
| 20260503203130 | 15 | 312 | 8.0 | 12.9 | 0.00 | 0.00 | 0.00 | 29 | 1011.1 |
| 20260503203025 | 15 | 316 | 6.4 | 14.5 | 0.00 | 0.00 | 0.00 | 30 | 1011.2 |
| 20260503202921 | 15 | 309 | 9.7 | 19.3 | 0.00 | 0.00 | 0.00 | 30 | 1011.4 |
| 20260503202816 | 15 | 352 | 6.4 | 11.3 | 0.00 | 0.00 | 0.00 | 30 | 1011.3 |
| 20260503202728 | 15 | 339 | 6.4 | 11.3 | 0.00 | 0.00 | 0.00 | 30 | 1011.3 |
| 20260503202624 | 15 | 342 | 8.0 | 14.5 | 0.00 | 0.00 | 0.00 | 30 | 1011.4 |
| 20260503202519 | 15 | 311 | 4.8 | 9.7 | 0.00 | 0.00 | 0.00 | 30 | 1011.3 |
| 20260503202415 | 15 | 11 | 1.6 | 4.8 | 0.00 | 0.00 | 0.00 | 30 | 1011.2 |
| 20260503202327 | 15 | 233 | 4.8 | 17.7 | 0.00 | 0.00 | 0.00 | 30 | 1011.1 |
| 20260503202242 | 15 | 330 | 9.7 | 24.1 | 0.00 | 0.00 | 0.00 | 29 | 1011.2 |
| 20260503202118 | 15 | 338 | 9.7 | 24.1 | 0.00 | 0.00 | 0.00 | 29 | 1011.2 |
| 20260503202030 | 15 | 344 | 3.2 | 9.7 | 0.00 | 0.00 | 0.00 | 30 | 1011.5 |
| 20260503201925 | 15 | 291 | 4.8 | 11.3 | 0.00 | 0.00 | 0.00 | 30 | 1011.5 |
| 20260503201821 | 15 | 289 | 4.8 | 8.0 | 0.00 | 0.00 | 0.00 | 31 | 1011.4 |
| 20260503201716 | 15 | 333 | 3.2 | 8.0 | 0.00 | 0.00 | 0.00 | 31 | 1011.5 |
| 20260503201628 | 15 | 303 | 9.7 | 19.3 | 0.00 | 0.00 | 0.00 | 30 | 1011.3 |
| 20260503201524 | 15 | 348 | 6.4 | 12.9 | 0.00 | 0.00 | 0.00 | 30 | 1011.3 |
| 20260503201439 | 15 | 355 | 6.4 | 12.9 | 0.00 | 0.00 | 0.00 | 30 | 1011.5 |
| 20260503201331 | 15 | 38 | 6.4 | 12.9 | 0.00 | 0.00 | 0.00 | 31 | 1011.4 |
| 20260503201226 | 15 | 345 | 8.0 | 16.1 | 0.00 | 0.00 | 0.00 | 30 | 1011.3 |
| 20260503201122 | 15 | 10 | 8.0 | 12.9 | 0.00 | 0.00 | 0.00 | 30 | 1011.1 |
| 20260503201018 | 15 | 345 | 9.7 | 14.5 | 0.00 | 0.00 | 0.00 | 30 | 1011.2 |
| 20260503200929 | 15 | 46 | 6.4 | 9.7 | 0.00 | 0.00 | 0.00 | 30 | 1011.5 |
| 20260503200845 | 15 | 355 | 9.7 | 20.9 | 0.00 | 0.00 | 0.00 | 30 | 1011.5 |
| 20260503200801 | 15 | 327 | 8.0 | 20.9 | 0.00 | 0.00 | 0.00 | 30 | 1011.4 |
| 20260503200616 | 15 | 18 | 3.2 | 6.4 | 0.00 | 0.00 | 0.00 | 31 | 1011.5 |
| 20260503200528 | 15 | 3 | 4.8 | 8.0 | 0.00 | 0.00 | 0.00 | 30 | 1011.4 |
| 20260503200423 | 15 | 44 | 4.8 | 8.0 | 0.00 | 0.00 | 0.00 | 31 | 1011.2 |
| 20260503200319 | 15 | 9 | 4.8 | 8.0 | 0.00 | 0.00 | 0.00 | 30 | 1011.4 |
| 20260503200231 | 15 | 272 | 3.2 | 6.4 | 0.00 | 0.00 | 0.00 | 31 | 1011.4 |
| 20260503200126 | 15 | 353 | 1.6 | 6.4 | 0.00 | 0.00 | 0.00 | 31 | 1011.4 |
| 20260503200022 | 15 | 329 | 4.8 | 6.4 | 0.00 | 0.00 | 0.00 | 30 | 1011.4 |
| 20260503195918 | 15 | 284 | 3.2 | 11.3 | 0.00 | 0.00 | 0.00 | 30 | 1011.5 |
| 20260503195829 | 15 | 341 | 6.4 | 16.1 | 0.00 | 0.00 | 0.00 | 30 | 1011.5 |
| 20260503195725 | 15 | 340 | 6.4 | 19.3 | 0.00 | 0.00 | 0.00 | 29 | 1011.6 |
| 20260503195620 | 15 | 332 | 6.4 | 11.3 | 0.00 | 0.00 | 0.00 | 32 | 1011.5 |
| 20260503195535 | 15 | 359 | 4.8 | 11.3 | 0.00 | 0.00 | 0.00 | 31 | 1011.5 |
| 20260503195427 | 15 | 342 | 6.4 | 14.5 | 0.00 | 0.00 | 0.00 | 31 | 1011.4 |
| 20260503195323 | 15 | 338 | 9.7 | 17.7 | 0.00 | 0.00 | 0.00 | 31 | 1011.4 |
| 20260503195219 | 15 | 32 | 8.0 | 9.7 | 0.00 | 0.00 | 0.00 | 30 | 1011.4 |